<?xml version="1.0" encoding="UTF-8" standalone="no" ?>
<gpx xmlns="http://www.topografix.com/GPX/1/1" xmlns:xsi="http://www.w3.org/2001/XMLSchema-instance" xsi:schemaLocation="http://www.topografix.com/GPX/1/1 http://www.topografix.com/GPX/1/1/gpx.xsd" version="1.1" creator="VisuGPX - https://www.visugpx.com">
  <metadata>
    <name>Les gorges de Trévans - 26/09/20 - Estoublon</name>
  </metadata>
  <trk>
    <name><![CDATA[Les gorges de Trévans - 26/09/20 - Estoublon]]></name>
    <trkseg>
      <trkpt lat="43.94744" lon="6.22093">
        <ele>644</ele>
        <time>2020-09-26T09:36:32+02:00</time>
      </trkpt>
      <trkpt lat="43.94739" lon="6.22105">
        <ele>648</ele>
        <time>2020-09-26T09:36:32+02:00</time>
      </trkpt>
      <trkpt lat="43.94736" lon="6.22118">
        <ele>648</ele>
        <time>2020-09-26T09:36:32+02:00</time>
      </trkpt>
      <trkpt lat="43.94738" lon="6.22131">
        <ele>649</ele>
        <time>2020-09-26T09:36:32+02:00</time>
      </trkpt>
      <trkpt lat="43.94737" lon="6.22143">
        <ele>651</ele>
        <time>2020-09-26T09:36:32+02:00</time>
      </trkpt>
      <trkpt lat="43.94737" lon="6.22156">
        <ele>656</ele>
        <time>2020-09-26T09:36:32+02:00</time>
      </trkpt>
      <trkpt lat="43.94741" lon="6.22168">
        <ele>655</ele>
        <time>2020-09-26T09:38:40+02:00</time>
      </trkpt>
      <trkpt lat="43.94749" lon="6.22174">
        <ele>654</ele>
        <time>2020-09-26T09:38:40+02:00</time>
      </trkpt>
      <trkpt lat="43.94759" lon="6.22181">
        <ele>656</ele>
        <time>2020-09-26T09:38:40+02:00</time>
      </trkpt>
      <trkpt lat="43.94768" lon="6.22185">
        <ele>657</ele>
        <time>2020-09-26T09:38:40+02:00</time>
      </trkpt>
      <trkpt lat="43.94777" lon="6.22188">
        <ele>654</ele>
        <time>2020-09-26T09:38:40+02:00</time>
      </trkpt>
      <trkpt lat="43.94782" lon="6.22178">
        <ele>657</ele>
        <time>2020-09-26T09:38:40+02:00</time>
      </trkpt>
      <trkpt lat="43.9479" lon="6.22173">
        <ele>656</ele>
        <time>2020-09-26T09:38:40+02:00</time>
      </trkpt>
      <trkpt lat="43.94799" lon="6.22175">
        <ele>658</ele>
        <time>2020-09-26T09:38:40+02:00</time>
      </trkpt>
      <trkpt lat="43.94809" lon="6.22177">
        <ele>659</ele>
        <time>2020-09-26T09:38:40+02:00</time>
      </trkpt>
      <trkpt lat="43.94817" lon="6.22181">
        <ele>660</ele>
        <time>2020-09-26T09:38:40+02:00</time>
      </trkpt>
      <trkpt lat="43.94824" lon="6.2219">
        <ele>659</ele>
        <time>2020-09-26T09:38:40+02:00</time>
      </trkpt>
      <trkpt lat="43.94828" lon="6.22202">
        <ele>661</ele>
        <time>2020-09-26T09:38:40+02:00</time>
      </trkpt>
      <trkpt lat="43.94828" lon="6.22215">
        <ele>660</ele>
        <time>2020-09-26T09:38:40+02:00</time>
      </trkpt>
      <trkpt lat="43.94824" lon="6.22226">
        <ele>655</ele>
        <time>2020-09-26T09:40:48+02:00</time>
      </trkpt>
      <trkpt lat="43.94819" lon="6.22237">
        <ele>654</ele>
        <time>2020-09-26T09:40:48+02:00</time>
      </trkpt>
      <trkpt lat="43.94815" lon="6.2225">
        <ele>655</ele>
        <time>2020-09-26T09:40:48+02:00</time>
      </trkpt>
      <trkpt lat="43.94812" lon="6.22263">
        <ele>654</ele>
        <time>2020-09-26T09:40:48+02:00</time>
      </trkpt>
      <trkpt lat="43.9481" lon="6.22276">
        <ele>654</ele>
        <time>2020-09-26T09:40:48+02:00</time>
      </trkpt>
      <trkpt lat="43.9481" lon="6.22289">
        <ele>655</ele>
        <time>2020-09-26T09:40:48+02:00</time>
      </trkpt>
      <trkpt lat="43.94809" lon="6.22302">
        <ele>655</ele>
        <time>2020-09-26T09:40:48+02:00</time>
      </trkpt>
      <trkpt lat="43.94807" lon="6.22316">
        <ele>651</ele>
        <time>2020-09-26T09:40:48+02:00</time>
      </trkpt>
      <trkpt lat="43.94808" lon="6.22332">
        <ele>650</ele>
        <time>2020-09-26T09:40:48+02:00</time>
      </trkpt>
      <trkpt lat="43.94808" lon="6.22344">
        <ele>650</ele>
        <time>2020-09-26T09:40:48+02:00</time>
      </trkpt>
      <trkpt lat="43.9481" lon="6.22359">
        <ele>654</ele>
        <time>2020-09-26T09:40:48+02:00</time>
      </trkpt>
      <trkpt lat="43.94811" lon="6.22372">
        <ele>652</ele>
        <time>2020-09-26T09:40:48+02:00</time>
      </trkpt>
      <trkpt lat="43.94812" lon="6.22385">
        <ele>651</ele>
        <time>2020-09-26T09:40:48+02:00</time>
      </trkpt>
      <trkpt lat="43.94812" lon="6.22398">
        <ele>650</ele>
        <time>2020-09-26T09:40:48+02:00</time>
      </trkpt>
      <trkpt lat="43.94813" lon="6.22412">
        <ele>650</ele>
        <time>2020-09-26T09:42:56+02:00</time>
      </trkpt>
      <trkpt lat="43.94811" lon="6.22425">
        <ele>649</ele>
        <time>2020-09-26T09:42:56+02:00</time>
      </trkpt>
      <trkpt lat="43.94808" lon="6.22438">
        <ele>650</ele>
        <time>2020-09-26T09:42:56+02:00</time>
      </trkpt>
      <trkpt lat="43.94805" lon="6.22451">
        <ele>649</ele>
        <time>2020-09-26T09:42:56+02:00</time>
      </trkpt>
      <trkpt lat="43.94804" lon="6.22465">
        <ele>648</ele>
        <time>2020-09-26T09:42:56+02:00</time>
      </trkpt>
      <trkpt lat="43.94801" lon="6.2248">
        <ele>648</ele>
        <time>2020-09-26T09:42:56+02:00</time>
      </trkpt>
      <trkpt lat="43.948" lon="6.22493">
        <ele>650</ele>
        <time>2020-09-26T09:42:56+02:00</time>
      </trkpt>
      <trkpt lat="43.94799" lon="6.22507">
        <ele>651</ele>
        <time>2020-09-26T09:42:56+02:00</time>
      </trkpt>
      <trkpt lat="43.94793" lon="6.22518">
        <ele>651</ele>
        <time>2020-09-26T09:42:56+02:00</time>
      </trkpt>
      <trkpt lat="43.94787" lon="6.22528">
        <ele>650</ele>
        <time>2020-09-26T09:42:56+02:00</time>
      </trkpt>
      <trkpt lat="43.94778" lon="6.22539">
        <ele>651</ele>
        <time>2020-09-26T09:42:56+02:00</time>
      </trkpt>
      <trkpt lat="43.9477" lon="6.2255">
        <ele>651</ele>
        <time>2020-09-26T09:42:56+02:00</time>
      </trkpt>
      <trkpt lat="43.94762" lon="6.22559">
        <ele>652</ele>
        <time>2020-09-26T09:42:56+02:00</time>
      </trkpt>
      <trkpt lat="43.94753" lon="6.22555">
        <ele>652</ele>
        <time>2020-09-26T09:42:56+02:00</time>
      </trkpt>
      <trkpt lat="43.94744" lon="6.2255">
        <ele>653</ele>
        <time>2020-09-26T09:45:04+02:00</time>
      </trkpt>
      <trkpt lat="43.94735" lon="6.22546">
        <ele>657</ele>
        <time>2020-09-26T09:45:04+02:00</time>
      </trkpt>
      <trkpt lat="43.94733" lon="6.22559">
        <ele>655</ele>
        <time>2020-09-26T09:45:04+02:00</time>
      </trkpt>
      <trkpt lat="43.94725" lon="6.22565">
        <ele>657</ele>
        <time>2020-09-26T09:45:04+02:00</time>
      </trkpt>
      <trkpt lat="43.94718" lon="6.22574">
        <ele>658</ele>
        <time>2020-09-26T09:45:04+02:00</time>
      </trkpt>
      <trkpt lat="43.94711" lon="6.22583">
        <ele>660</ele>
        <time>2020-09-26T09:47:12+02:00</time>
      </trkpt>
      <trkpt lat="43.94709" lon="6.22596">
        <ele>659</ele>
        <time>2020-09-26T09:47:12+02:00</time>
      </trkpt>
      <trkpt lat="43.94705" lon="6.22608">
        <ele>658</ele>
        <time>2020-09-26T09:47:12+02:00</time>
      </trkpt>
      <trkpt lat="43.94701" lon="6.2262">
        <ele>659</ele>
        <time>2020-09-26T09:47:12+02:00</time>
      </trkpt>
      <trkpt lat="43.94699" lon="6.22633">
        <ele>659</ele>
        <time>2020-09-26T09:47:12+02:00</time>
      </trkpt>
      <trkpt lat="43.94696" lon="6.22645">
        <ele>661</ele>
        <time>2020-09-26T09:47:12+02:00</time>
      </trkpt>
      <trkpt lat="43.94702" lon="6.22654">
        <ele>663</ele>
        <time>2020-09-26T09:47:12+02:00</time>
      </trkpt>
      <trkpt lat="43.94705" lon="6.22668">
        <ele>663</ele>
        <time>2020-09-26T09:47:12+02:00</time>
      </trkpt>
      <trkpt lat="43.94712" lon="6.22677">
        <ele>664</ele>
        <time>2020-09-26T09:47:12+02:00</time>
      </trkpt>
      <trkpt lat="43.94716" lon="6.22689">
        <ele>664</ele>
        <time>2020-09-26T09:47:12+02:00</time>
      </trkpt>
      <trkpt lat="43.94722" lon="6.22699">
        <ele>664</ele>
        <time>2020-09-26T09:47:12+02:00</time>
      </trkpt>
      <trkpt lat="43.9473" lon="6.22703">
        <ele>663</ele>
        <time>2020-09-26T09:47:12+02:00</time>
      </trkpt>
      <trkpt lat="43.94735" lon="6.22715">
        <ele>665</ele>
        <time>2020-09-26T09:47:12+02:00</time>
      </trkpt>
      <trkpt lat="43.94738" lon="6.22727">
        <ele>664</ele>
        <time>2020-09-26T09:49:20+02:00</time>
      </trkpt>
      <trkpt lat="43.94739" lon="6.2274">
        <ele>665</ele>
        <time>2020-09-26T09:49:20+02:00</time>
      </trkpt>
      <trkpt lat="43.94746" lon="6.22748">
        <ele>664</ele>
        <time>2020-09-26T09:49:20+02:00</time>
      </trkpt>
      <trkpt lat="43.94755" lon="6.22748">
        <ele>668</ele>
        <time>2020-09-26T09:49:20+02:00</time>
      </trkpt>
      <trkpt lat="43.94764" lon="6.22752">
        <ele>670</ele>
        <time>2020-09-26T09:49:20+02:00</time>
      </trkpt>
      <trkpt lat="43.94768" lon="6.22765">
        <ele>668</ele>
        <time>2020-09-26T09:49:20+02:00</time>
      </trkpt>
      <trkpt lat="43.94767" lon="6.22779">
        <ele>665</ele>
        <time>2020-09-26T09:49:20+02:00</time>
      </trkpt>
      <trkpt lat="43.94768" lon="6.22792">
        <ele>666</ele>
        <time>2020-09-26T09:49:20+02:00</time>
      </trkpt>
      <trkpt lat="43.94774" lon="6.22802">
        <ele>664</ele>
        <time>2020-09-26T09:49:20+02:00</time>
      </trkpt>
      <trkpt lat="43.94781" lon="6.22812">
        <ele>663</ele>
        <time>2020-09-26T09:49:20+02:00</time>
      </trkpt>
      <trkpt lat="43.94788" lon="6.22823">
        <ele>662</ele>
        <time>2020-09-26T09:49:20+02:00</time>
      </trkpt>
      <trkpt lat="43.94792" lon="6.22834">
        <ele>660</ele>
        <time>2020-09-26T09:49:20+02:00</time>
      </trkpt>
      <trkpt lat="43.94794" lon="6.22846">
        <ele>659</ele>
        <time>2020-09-26T09:49:20+02:00</time>
      </trkpt>
      <trkpt lat="43.94791" lon="6.22859">
        <ele>658</ele>
        <time>2020-09-26T09:49:20+02:00</time>
      </trkpt>
      <trkpt lat="43.94786" lon="6.2287">
        <ele>659</ele>
        <time>2020-09-26T09:51:28+02:00</time>
      </trkpt>
      <trkpt lat="43.94783" lon="6.22883">
        <ele>662</ele>
        <time>2020-09-26T09:51:28+02:00</time>
      </trkpt>
      <trkpt lat="43.94783" lon="6.22895">
        <ele>663</ele>
        <time>2020-09-26T09:51:28+02:00</time>
      </trkpt>
      <trkpt lat="43.94779" lon="6.22908">
        <ele>665</ele>
        <time>2020-09-26T09:51:28+02:00</time>
      </trkpt>
      <trkpt lat="43.9477" lon="6.22915">
        <ele>664</ele>
        <time>2020-09-26T09:51:28+02:00</time>
      </trkpt>
      <trkpt lat="43.94767" lon="6.22927">
        <ele>664</ele>
        <time>2020-09-26T09:51:28+02:00</time>
      </trkpt>
      <trkpt lat="43.94764" lon="6.22939">
        <ele>665</ele>
        <time>2020-09-26T09:51:28+02:00</time>
      </trkpt>
      <trkpt lat="43.94761" lon="6.22951">
        <ele>667</ele>
        <time>2020-09-26T09:51:28+02:00</time>
      </trkpt>
      <trkpt lat="43.94759" lon="6.22964">
        <ele>665</ele>
        <time>2020-09-26T09:51:28+02:00</time>
      </trkpt>
      <trkpt lat="43.94755" lon="6.22976">
        <ele>666</ele>
        <time>2020-09-26T09:51:28+02:00</time>
      </trkpt>
      <trkpt lat="43.94754" lon="6.22989">
        <ele>668</ele>
        <time>2020-09-26T09:51:28+02:00</time>
      </trkpt>
      <trkpt lat="43.94756" lon="6.23002">
        <ele>670</ele>
        <time>2020-09-26T09:51:28+02:00</time>
      </trkpt>
      <trkpt lat="43.94753" lon="6.23015">
        <ele>672</ele>
        <time>2020-09-26T09:51:28+02:00</time>
      </trkpt>
      <trkpt lat="43.94752" lon="6.23028">
        <ele>672</ele>
        <time>2020-09-26T09:53:36+02:00</time>
      </trkpt>
      <trkpt lat="43.94756" lon="6.23041">
        <ele>671</ele>
        <time>2020-09-26T09:53:36+02:00</time>
      </trkpt>
      <trkpt lat="43.94755" lon="6.23054">
        <ele>675</ele>
        <time>2020-09-26T09:53:36+02:00</time>
      </trkpt>
      <trkpt lat="43.94756" lon="6.23067">
        <ele>674</ele>
        <time>2020-09-26T09:53:36+02:00</time>
      </trkpt>
      <trkpt lat="43.94758" lon="6.2308">
        <ele>675</ele>
        <time>2020-09-26T09:53:36+02:00</time>
      </trkpt>
      <trkpt lat="43.94758" lon="6.23094">
        <ele>674</ele>
        <time>2020-09-26T09:53:36+02:00</time>
      </trkpt>
      <trkpt lat="43.94758" lon="6.23107">
        <ele>671</ele>
        <time>2020-09-26T09:53:36+02:00</time>
      </trkpt>
      <trkpt lat="43.94758" lon="6.23119">
        <ele>671</ele>
        <time>2020-09-26T09:53:36+02:00</time>
      </trkpt>
      <trkpt lat="43.94754" lon="6.23132">
        <ele>672</ele>
        <time>2020-09-26T09:53:36+02:00</time>
      </trkpt>
      <trkpt lat="43.94754" lon="6.23144">
        <ele>674</ele>
        <time>2020-09-26T09:53:36+02:00</time>
      </trkpt>
      <trkpt lat="43.94756" lon="6.23157">
        <ele>672</ele>
        <time>2020-09-26T09:53:36+02:00</time>
      </trkpt>
      <trkpt lat="43.94752" lon="6.23169">
        <ele>669</ele>
        <time>2020-09-26T09:53:36+02:00</time>
      </trkpt>
      <trkpt lat="43.94752" lon="6.23183">
        <ele>664</ele>
        <time>2020-09-26T09:53:36+02:00</time>
      </trkpt>
      <trkpt lat="43.94748" lon="6.23194">
        <ele>663</ele>
        <time>2020-09-26T09:55:44+02:00</time>
      </trkpt>
      <trkpt lat="43.94738" lon="6.23193">
        <ele>666</ele>
        <time>2020-09-26T09:55:44+02:00</time>
      </trkpt>
      <trkpt lat="43.94729" lon="6.23196">
        <ele>667</ele>
        <time>2020-09-26T09:55:44+02:00</time>
      </trkpt>
      <trkpt lat="43.94721" lon="6.23204">
        <ele>669</ele>
        <time>2020-09-26T09:55:44+02:00</time>
      </trkpt>
      <trkpt lat="43.94717" lon="6.23216">
        <ele>666</ele>
        <time>2020-09-26T09:55:44+02:00</time>
      </trkpt>
      <trkpt lat="43.9471" lon="6.23224">
        <ele>670</ele>
        <time>2020-09-26T09:57:52+02:00</time>
      </trkpt>
      <trkpt lat="43.94703" lon="6.23233">
        <ele>677</ele>
        <time>2020-09-26T10:00:00+02:00</time>
      </trkpt>
      <trkpt lat="43.94695" lon="6.23241">
        <ele>677</ele>
        <time>2020-09-26T10:00:00+02:00</time>
      </trkpt>
      <trkpt lat="43.94696" lon="6.23255">
        <ele>672</ele>
        <time>2020-09-26T10:00:00+02:00</time>
      </trkpt>
      <trkpt lat="43.94695" lon="6.23268">
        <ele>670</ele>
        <time>2020-09-26T10:00:00+02:00</time>
      </trkpt>
      <trkpt lat="43.94701" lon="6.23279">
        <ele>668</ele>
        <time>2020-09-26T10:00:00+02:00</time>
      </trkpt>
      <trkpt lat="43.94701" lon="6.23292">
        <ele>666</ele>
        <time>2020-09-26T10:00:00+02:00</time>
      </trkpt>
      <trkpt lat="43.94706" lon="6.23302">
        <ele>672</ele>
        <time>2020-09-26T10:00:00+02:00</time>
      </trkpt>
      <trkpt lat="43.9471" lon="6.23314">
        <ele>678</ele>
        <time>2020-09-26T10:04:16+02:00</time>
      </trkpt>
      <trkpt lat="43.94705" lon="6.23326">
        <ele>681</ele>
        <time>2020-09-26T10:04:16+02:00</time>
      </trkpt>
      <trkpt lat="43.94713" lon="6.23336">
        <ele>683</ele>
        <time>2020-09-26T10:04:16+02:00</time>
      </trkpt>
      <trkpt lat="43.94723" lon="6.23333">
        <ele>684</ele>
        <time>2020-09-26T10:04:16+02:00</time>
      </trkpt>
      <trkpt lat="43.94732" lon="6.23335">
        <ele>704</ele>
        <time>2020-09-26T10:06:24+02:00</time>
      </trkpt>
      <trkpt lat="43.94734" lon="6.23347">
        <ele>711</ele>
        <time>2020-09-26T10:06:24+02:00</time>
      </trkpt>
      <trkpt lat="43.94736" lon="6.2336">
        <ele>708</ele>
        <time>2020-09-26T10:06:24+02:00</time>
      </trkpt>
      <trkpt lat="43.9474" lon="6.23371">
        <ele>705</ele>
        <time>2020-09-26T10:06:24+02:00</time>
      </trkpt>
      <trkpt lat="43.94738" lon="6.23384">
        <ele>719</ele>
        <time>2020-09-26T10:08:32+02:00</time>
      </trkpt>
      <trkpt lat="43.94741" lon="6.23396">
        <ele>720</ele>
        <time>2020-09-26T10:08:32+02:00</time>
      </trkpt>
      <trkpt lat="43.94737" lon="6.23407">
        <ele>723</ele>
        <time>2020-09-26T10:08:32+02:00</time>
      </trkpt>
      <trkpt lat="43.94731" lon="6.23417">
        <ele>723</ele>
        <time>2020-09-26T10:08:32+02:00</time>
      </trkpt>
      <trkpt lat="43.94723" lon="6.23424">
        <ele>717</ele>
        <time>2020-09-26T10:10:40+02:00</time>
      </trkpt>
      <trkpt lat="43.94733" lon="6.23427">
        <ele>717</ele>
        <time>2020-09-26T10:10:40+02:00</time>
      </trkpt>
      <trkpt lat="43.9474" lon="6.23435">
        <ele>716</ele>
        <time>2020-09-26T10:10:40+02:00</time>
      </trkpt>
      <trkpt lat="43.94747" lon="6.23444">
        <ele>724</ele>
        <time>2020-09-26T10:10:40+02:00</time>
      </trkpt>
      <trkpt lat="43.94749" lon="6.23456">
        <ele>733</ele>
        <time>2020-09-26T10:10:40+02:00</time>
      </trkpt>
      <trkpt lat="43.94746" lon="6.2347">
        <ele>732</ele>
        <time>2020-09-26T10:10:40+02:00</time>
      </trkpt>
      <trkpt lat="43.94751" lon="6.2348">
        <ele>731</ele>
        <time>2020-09-26T10:12:48+02:00</time>
      </trkpt>
      <trkpt lat="43.94747" lon="6.23491">
        <ele>732</ele>
        <time>2020-09-26T10:12:48+02:00</time>
      </trkpt>
      <trkpt lat="43.94749" lon="6.23503">
        <ele>735</ele>
        <time>2020-09-26T10:12:48+02:00</time>
      </trkpt>
      <trkpt lat="43.94754" lon="6.23514">
        <ele>740</ele>
        <time>2020-09-26T10:12:48+02:00</time>
      </trkpt>
      <trkpt lat="43.94753" lon="6.23526">
        <ele>738</ele>
        <time>2020-09-26T10:17:04+02:00</time>
      </trkpt>
      <trkpt lat="43.94757" lon="6.23539">
        <ele>736</ele>
        <time>2020-09-26T10:17:04+02:00</time>
      </trkpt>
      <trkpt lat="43.9476" lon="6.23552">
        <ele>738</ele>
        <time>2020-09-26T10:17:04+02:00</time>
      </trkpt>
      <trkpt lat="43.94757" lon="6.23564">
        <ele>740</ele>
        <time>2020-09-26T10:17:04+02:00</time>
      </trkpt>
      <trkpt lat="43.94754" lon="6.23576">
        <ele>741</ele>
        <time>2020-09-26T10:17:04+02:00</time>
      </trkpt>
      <trkpt lat="43.94751" lon="6.23588">
        <ele>743</ele>
        <time>2020-09-26T10:17:04+02:00</time>
      </trkpt>
      <trkpt lat="43.94751" lon="6.23601">
        <ele>743</ele>
        <time>2020-09-26T10:17:04+02:00</time>
      </trkpt>
      <trkpt lat="43.94753" lon="6.23614">
        <ele>745</ele>
        <time>2020-09-26T10:17:04+02:00</time>
      </trkpt>
      <trkpt lat="43.94755" lon="6.23626">
        <ele>745</ele>
        <time>2020-09-26T10:17:04+02:00</time>
      </trkpt>
      <trkpt lat="43.94757" lon="6.2364">
        <ele>747</ele>
        <time>2020-09-26T10:17:04+02:00</time>
      </trkpt>
      <trkpt lat="43.9476" lon="6.23652">
        <ele>745</ele>
        <time>2020-09-26T10:17:04+02:00</time>
      </trkpt>
      <trkpt lat="43.94763" lon="6.23664">
        <ele>744</ele>
        <time>2020-09-26T10:19:12+02:00</time>
      </trkpt>
      <trkpt lat="43.94768" lon="6.23675">
        <ele>742</ele>
        <time>2020-09-26T10:19:12+02:00</time>
      </trkpt>
      <trkpt lat="43.94771" lon="6.23687">
        <ele>738</ele>
        <time>2020-09-26T10:19:12+02:00</time>
      </trkpt>
      <trkpt lat="43.94781" lon="6.23695">
        <ele>736</ele>
        <time>2020-09-26T10:19:12+02:00</time>
      </trkpt>
      <trkpt lat="43.94784" lon="6.23707">
        <ele>737</ele>
        <time>2020-09-26T10:19:12+02:00</time>
      </trkpt>
      <trkpt lat="43.94787" lon="6.23719">
        <ele>730</ele>
        <time>2020-09-26T10:19:12+02:00</time>
      </trkpt>
      <trkpt lat="43.94786" lon="6.23731">
        <ele>729</ele>
        <time>2020-09-26T10:19:12+02:00</time>
      </trkpt>
      <trkpt lat="43.94789" lon="6.23744">
        <ele>725</ele>
        <time>2020-09-26T10:19:12+02:00</time>
      </trkpt>
      <trkpt lat="43.94794" lon="6.23754">
        <ele>721</ele>
        <time>2020-09-26T10:21:20+02:00</time>
      </trkpt>
      <trkpt lat="43.94795" lon="6.23768">
        <ele>720</ele>
        <time>2020-09-26T10:21:20+02:00</time>
      </trkpt>
      <trkpt lat="43.94799" lon="6.23779">
        <ele>715</ele>
        <time>2020-09-26T10:21:20+02:00</time>
      </trkpt>
      <trkpt lat="43.94802" lon="6.23792">
        <ele>710</ele>
        <time>2020-09-26T10:21:20+02:00</time>
      </trkpt>
      <trkpt lat="43.94805" lon="6.23804">
        <ele>708</ele>
        <time>2020-09-26T10:21:20+02:00</time>
      </trkpt>
      <trkpt lat="43.94811" lon="6.23816">
        <ele>705</ele>
        <time>2020-09-26T10:21:20+02:00</time>
      </trkpt>
      <trkpt lat="43.94817" lon="6.23824">
        <ele>703</ele>
        <time>2020-09-26T10:21:20+02:00</time>
      </trkpt>
      <trkpt lat="43.94824" lon="6.23832">
        <ele>701</ele>
        <time>2020-09-26T10:21:20+02:00</time>
      </trkpt>
      <trkpt lat="43.94819" lon="6.23842">
        <ele>698</ele>
        <time>2020-09-26T10:23:28+02:00</time>
      </trkpt>
      <trkpt lat="43.94823" lon="6.23854">
        <ele>697</ele>
        <time>2020-09-26T10:23:28+02:00</time>
      </trkpt>
      <trkpt lat="43.94825" lon="6.23866">
        <ele>703</ele>
        <time>2020-09-26T10:23:28+02:00</time>
      </trkpt>
      <trkpt lat="43.94825" lon="6.2388">
        <ele>703</ele>
        <time>2020-09-26T10:23:28+02:00</time>
      </trkpt>
      <trkpt lat="43.94822" lon="6.23893">
        <ele>702</ele>
        <time>2020-09-26T10:23:28+02:00</time>
      </trkpt>
      <trkpt lat="43.94816" lon="6.23902">
        <ele>698</ele>
        <time>2020-09-26T10:23:28+02:00</time>
      </trkpt>
      <trkpt lat="43.94807" lon="6.23907">
        <ele>709</ele>
        <time>2020-09-26T10:25:36+02:00</time>
      </trkpt>
      <trkpt lat="43.94799" lon="6.239">
        <ele>707</ele>
        <time>2020-09-26T10:25:36+02:00</time>
      </trkpt>
      <trkpt lat="43.94792" lon="6.23892">
        <ele>708</ele>
        <time>2020-09-26T10:25:36+02:00</time>
      </trkpt>
      <trkpt lat="43.94784" lon="6.23884">
        <ele>710</ele>
        <time>2020-09-26T10:25:36+02:00</time>
      </trkpt>
      <trkpt lat="43.94775" lon="6.23881">
        <ele>712</ele>
        <time>2020-09-26T10:25:36+02:00</time>
      </trkpt>
      <trkpt lat="43.94766" lon="6.23877">
        <ele>714</ele>
        <time>2020-09-26T10:25:36+02:00</time>
      </trkpt>
      <trkpt lat="43.94758" lon="6.23872">
        <ele>715</ele>
        <time>2020-09-26T10:25:36+02:00</time>
      </trkpt>
      <trkpt lat="43.94749" lon="6.23868">
        <ele>715</ele>
        <time>2020-09-26T10:25:36+02:00</time>
      </trkpt>
      <trkpt lat="43.9474" lon="6.23862">
        <ele>713</ele>
        <time>2020-09-26T10:27:44+02:00</time>
      </trkpt>
      <trkpt lat="43.94732" lon="6.23856">
        <ele>713</ele>
        <time>2020-09-26T10:27:44+02:00</time>
      </trkpt>
      <trkpt lat="43.94723" lon="6.23851">
        <ele>713</ele>
        <time>2020-09-26T10:27:44+02:00</time>
      </trkpt>
      <trkpt lat="43.94713" lon="6.23846">
        <ele>715</ele>
        <time>2020-09-26T10:27:44+02:00</time>
      </trkpt>
      <trkpt lat="43.94705" lon="6.23839">
        <ele>715</ele>
        <time>2020-09-26T10:27:44+02:00</time>
      </trkpt>
      <trkpt lat="43.94697" lon="6.23832">
        <ele>715</ele>
        <time>2020-09-26T10:27:44+02:00</time>
      </trkpt>
      <trkpt lat="43.9469" lon="6.23825">
        <ele>717</ele>
        <time>2020-09-26T10:27:44+02:00</time>
      </trkpt>
      <trkpt lat="43.94685" lon="6.23813">
        <ele>715</ele>
        <time>2020-09-26T10:27:44+02:00</time>
      </trkpt>
      <trkpt lat="43.94683" lon="6.238">
        <ele>718</ele>
        <time>2020-09-26T10:27:44+02:00</time>
      </trkpt>
      <trkpt lat="43.94679" lon="6.23788">
        <ele>720</ele>
        <time>2020-09-26T10:27:44+02:00</time>
      </trkpt>
      <trkpt lat="43.94676" lon="6.23775">
        <ele>725</ele>
        <time>2020-09-26T10:27:44+02:00</time>
      </trkpt>
      <trkpt lat="43.94673" lon="6.23763">
        <ele>730</ele>
        <time>2020-09-26T10:29:52+02:00</time>
      </trkpt>
      <trkpt lat="43.9467" lon="6.23751">
        <ele>729</ele>
        <time>2020-09-26T10:29:52+02:00</time>
      </trkpt>
      <trkpt lat="43.94667" lon="6.23738">
        <ele>730</ele>
        <time>2020-09-26T10:29:52+02:00</time>
      </trkpt>
      <trkpt lat="43.94662" lon="6.23727">
        <ele>732</ele>
        <time>2020-09-26T10:29:52+02:00</time>
      </trkpt>
      <trkpt lat="43.94654" lon="6.23718">
        <ele>735</ele>
        <time>2020-09-26T10:29:52+02:00</time>
      </trkpt>
      <trkpt lat="43.94647" lon="6.23708">
        <ele>737</ele>
        <time>2020-09-26T10:29:52+02:00</time>
      </trkpt>
      <trkpt lat="43.94641" lon="6.23699">
        <ele>741</ele>
        <time>2020-09-26T10:29:52+02:00</time>
      </trkpt>
      <trkpt lat="43.94637" lon="6.23688">
        <ele>744</ele>
        <time>2020-09-26T10:29:52+02:00</time>
      </trkpt>
      <trkpt lat="43.94638" lon="6.23675">
        <ele>744</ele>
        <time>2020-09-26T10:29:52+02:00</time>
      </trkpt>
      <trkpt lat="43.94643" lon="6.23664">
        <ele>744</ele>
        <time>2020-09-26T10:29:52+02:00</time>
      </trkpt>
      <trkpt lat="43.94647" lon="6.23653">
        <ele>745</ele>
        <time>2020-09-26T10:32:00+02:00</time>
      </trkpt>
      <trkpt lat="43.94648" lon="6.2364">
        <ele>745</ele>
        <time>2020-09-26T10:32:00+02:00</time>
      </trkpt>
      <trkpt lat="43.9465" lon="6.23627">
        <ele>746</ele>
        <time>2020-09-26T10:32:00+02:00</time>
      </trkpt>
      <trkpt lat="43.94642" lon="6.23634">
        <ele>740</ele>
        <time>2020-09-26T10:32:00+02:00</time>
      </trkpt>
      <trkpt lat="43.94636" lon="6.23644">
        <ele>736</ele>
        <time>2020-09-26T10:32:00+02:00</time>
      </trkpt>
      <trkpt lat="43.94628" lon="6.2365">
        <ele>739</ele>
        <time>2020-09-26T10:32:00+02:00</time>
      </trkpt>
      <trkpt lat="43.94619" lon="6.23655">
        <ele>742</ele>
        <time>2020-09-26T10:32:00+02:00</time>
      </trkpt>
      <trkpt lat="43.9461" lon="6.2366">
        <ele>746</ele>
        <time>2020-09-26T10:32:00+02:00</time>
      </trkpt>
      <trkpt lat="43.946" lon="6.23662">
        <ele>747</ele>
        <time>2020-09-26T10:32:00+02:00</time>
      </trkpt>
      <trkpt lat="43.94593" lon="6.23671">
        <ele>750</ele>
        <time>2020-09-26T10:34:08+02:00</time>
      </trkpt>
      <trkpt lat="43.94587" lon="6.23682">
        <ele>751</ele>
        <time>2020-09-26T10:34:08+02:00</time>
      </trkpt>
      <trkpt lat="43.94584" lon="6.23694">
        <ele>752</ele>
        <time>2020-09-26T10:34:08+02:00</time>
      </trkpt>
      <trkpt lat="43.94586" lon="6.23707">
        <ele>755</ele>
        <time>2020-09-26T10:34:08+02:00</time>
      </trkpt>
      <trkpt lat="43.94579" lon="6.23716">
        <ele>758</ele>
        <time>2020-09-26T10:34:08+02:00</time>
      </trkpt>
      <trkpt lat="43.94573" lon="6.23725">
        <ele>760</ele>
        <time>2020-09-26T10:34:08+02:00</time>
      </trkpt>
      <trkpt lat="43.94565" lon="6.23735">
        <ele>759</ele>
        <time>2020-09-26T10:34:08+02:00</time>
      </trkpt>
      <trkpt lat="43.94559" lon="6.23743">
        <ele>758</ele>
        <time>2020-09-26T10:34:08+02:00</time>
      </trkpt>
      <trkpt lat="43.94551" lon="6.23751">
        <ele>758</ele>
        <time>2020-09-26T10:34:08+02:00</time>
      </trkpt>
      <trkpt lat="43.94543" lon="6.23758">
        <ele>761</ele>
        <time>2020-09-26T10:34:08+02:00</time>
      </trkpt>
      <trkpt lat="43.94536" lon="6.23768">
        <ele>766</ele>
        <time>2020-09-26T10:34:08+02:00</time>
      </trkpt>
      <trkpt lat="43.94528" lon="6.23773">
        <ele>765</ele>
        <time>2020-09-26T10:36:16+02:00</time>
      </trkpt>
      <trkpt lat="43.94518" lon="6.23778">
        <ele>765</ele>
        <time>2020-09-26T10:36:16+02:00</time>
      </trkpt>
      <trkpt lat="43.94512" lon="6.23787">
        <ele>768</ele>
        <time>2020-09-26T10:36:16+02:00</time>
      </trkpt>
      <trkpt lat="43.94505" lon="6.23795">
        <ele>771</ele>
        <time>2020-09-26T10:36:16+02:00</time>
      </trkpt>
      <trkpt lat="43.94495" lon="6.23793">
        <ele>775</ele>
        <time>2020-09-26T10:36:16+02:00</time>
      </trkpt>
      <trkpt lat="43.94486" lon="6.23798">
        <ele>781</ele>
        <time>2020-09-26T10:36:16+02:00</time>
      </trkpt>
      <trkpt lat="43.94477" lon="6.23801">
        <ele>785</ele>
        <time>2020-09-26T10:36:16+02:00</time>
      </trkpt>
      <trkpt lat="43.94467" lon="6.23802">
        <ele>786</ele>
        <time>2020-09-26T10:36:16+02:00</time>
      </trkpt>
      <trkpt lat="43.94458" lon="6.23803">
        <ele>785</ele>
        <time>2020-09-26T10:36:16+02:00</time>
      </trkpt>
      <trkpt lat="43.94448" lon="6.23806">
        <ele>785</ele>
        <time>2020-09-26T10:38:24+02:00</time>
      </trkpt>
      <trkpt lat="43.94439" lon="6.23805">
        <ele>783</ele>
        <time>2020-09-26T10:38:24+02:00</time>
      </trkpt>
      <trkpt lat="43.9443" lon="6.23802">
        <ele>785</ele>
        <time>2020-09-26T10:38:24+02:00</time>
      </trkpt>
      <trkpt lat="43.94423" lon="6.2381">
        <ele>788</ele>
        <time>2020-09-26T10:40:32+02:00</time>
      </trkpt>
      <trkpt lat="43.94417" lon="6.2382">
        <ele>789</ele>
        <time>2020-09-26T10:42:40+02:00</time>
      </trkpt>
      <trkpt lat="43.94424" lon="6.23811">
        <ele>787</ele>
        <time>2020-09-26T10:44:48+02:00</time>
      </trkpt>
      <trkpt lat="43.94418" lon="6.23821">
        <ele>787</ele>
        <time>2020-09-26T10:49:04+02:00</time>
      </trkpt>
      <trkpt lat="43.94409" lon="6.23823">
        <ele>790</ele>
        <time>2020-09-26T10:49:04+02:00</time>
      </trkpt>
      <trkpt lat="43.94399" lon="6.23827">
        <ele>789</ele>
        <time>2020-09-26T10:49:04+02:00</time>
      </trkpt>
      <trkpt lat="43.9439" lon="6.2383">
        <ele>788</ele>
        <time>2020-09-26T10:49:04+02:00</time>
      </trkpt>
      <trkpt lat="43.94385" lon="6.23841">
        <ele>785</ele>
        <time>2020-09-26T10:49:04+02:00</time>
      </trkpt>
      <trkpt lat="43.94378" lon="6.23851">
        <ele>786</ele>
        <time>2020-09-26T10:49:04+02:00</time>
      </trkpt>
      <trkpt lat="43.94368" lon="6.23851">
        <ele>787</ele>
        <time>2020-09-26T10:49:04+02:00</time>
      </trkpt>
      <trkpt lat="43.9436" lon="6.23846">
        <ele>789</ele>
        <time>2020-09-26T10:51:12+02:00</time>
      </trkpt>
      <trkpt lat="43.94352" lon="6.23851">
        <ele>791</ele>
        <time>2020-09-26T10:51:12+02:00</time>
      </trkpt>
      <trkpt lat="43.94343" lon="6.23857">
        <ele>790</ele>
        <time>2020-09-26T10:51:12+02:00</time>
      </trkpt>
      <trkpt lat="43.94336" lon="6.23865">
        <ele>790</ele>
        <time>2020-09-26T10:51:12+02:00</time>
      </trkpt>
      <trkpt lat="43.94341" lon="6.23876">
        <ele>790</ele>
        <time>2020-09-26T10:51:12+02:00</time>
      </trkpt>
      <trkpt lat="43.94348" lon="6.23887">
        <ele>787</ele>
        <time>2020-09-26T10:51:12+02:00</time>
      </trkpt>
      <trkpt lat="43.94352" lon="6.23899">
        <ele>787</ele>
        <time>2020-09-26T10:51:12+02:00</time>
      </trkpt>
      <trkpt lat="43.9436" lon="6.23907">
        <ele>789</ele>
        <time>2020-09-26T10:51:12+02:00</time>
      </trkpt>
      <trkpt lat="43.94365" lon="6.23919">
        <ele>789</ele>
        <time>2020-09-26T10:51:12+02:00</time>
      </trkpt>
      <trkpt lat="43.94368" lon="6.23931">
        <ele>788</ele>
        <time>2020-09-26T10:51:12+02:00</time>
      </trkpt>
      <trkpt lat="43.94367" lon="6.23945">
        <ele>786</ele>
        <time>2020-09-26T10:51:12+02:00</time>
      </trkpt>
      <trkpt lat="43.94366" lon="6.23959">
        <ele>786</ele>
        <time>2020-09-26T10:53:20+02:00</time>
      </trkpt>
      <trkpt lat="43.94363" lon="6.23971">
        <ele>788</ele>
        <time>2020-09-26T10:53:20+02:00</time>
      </trkpt>
      <trkpt lat="43.94357" lon="6.23981">
        <ele>789</ele>
        <time>2020-09-26T10:53:20+02:00</time>
      </trkpt>
      <trkpt lat="43.94352" lon="6.23993">
        <ele>795</ele>
        <time>2020-09-26T10:53:20+02:00</time>
      </trkpt>
      <trkpt lat="43.94344" lon="6.24">
        <ele>798</ele>
        <time>2020-09-26T10:53:20+02:00</time>
      </trkpt>
      <trkpt lat="43.94337" lon="6.24009">
        <ele>800</ele>
        <time>2020-09-26T10:53:20+02:00</time>
      </trkpt>
      <trkpt lat="43.94331" lon="6.24018">
        <ele>803</ele>
        <time>2020-09-26T10:53:20+02:00</time>
      </trkpt>
      <trkpt lat="43.94326" lon="6.24029">
        <ele>804</ele>
        <time>2020-09-26T10:53:20+02:00</time>
      </trkpt>
      <trkpt lat="43.94321" lon="6.2404">
        <ele>805</ele>
        <time>2020-09-26T10:53:20+02:00</time>
      </trkpt>
      <trkpt lat="43.94315" lon="6.24052">
        <ele>803</ele>
        <time>2020-09-26T10:53:20+02:00</time>
      </trkpt>
      <trkpt lat="43.9431" lon="6.24065">
        <ele>811</ele>
        <time>2020-09-26T10:53:20+02:00</time>
      </trkpt>
      <trkpt lat="43.94303" lon="6.24072">
        <ele>812</ele>
        <time>2020-09-26T10:55:28+02:00</time>
      </trkpt>
      <trkpt lat="43.94293" lon="6.24076">
        <ele>812</ele>
        <time>2020-09-26T10:55:28+02:00</time>
      </trkpt>
      <trkpt lat="43.94285" lon="6.2408">
        <ele>813</ele>
        <time>2020-09-26T10:55:28+02:00</time>
      </trkpt>
      <trkpt lat="43.94275" lon="6.24083">
        <ele>813</ele>
        <time>2020-09-26T10:55:28+02:00</time>
      </trkpt>
      <trkpt lat="43.94266" lon="6.24088">
        <ele>813</ele>
        <time>2020-09-26T10:55:28+02:00</time>
      </trkpt>
      <trkpt lat="43.94257" lon="6.24093">
        <ele>813</ele>
        <time>2020-09-26T10:55:28+02:00</time>
      </trkpt>
      <trkpt lat="43.94248" lon="6.24094">
        <ele>816</ele>
        <time>2020-09-26T10:55:28+02:00</time>
      </trkpt>
      <trkpt lat="43.94239" lon="6.24093">
        <ele>817</ele>
        <time>2020-09-26T10:55:28+02:00</time>
      </trkpt>
      <trkpt lat="43.94228" lon="6.24097">
        <ele>817</ele>
        <time>2020-09-26T10:55:28+02:00</time>
      </trkpt>
      <trkpt lat="43.94219" lon="6.24096">
        <ele>817</ele>
        <time>2020-09-26T10:55:28+02:00</time>
      </trkpt>
      <trkpt lat="43.9421" lon="6.24098">
        <ele>816</ele>
        <time>2020-09-26T10:55:28+02:00</time>
      </trkpt>
      <trkpt lat="43.942" lon="6.24097">
        <ele>819</ele>
        <time>2020-09-26T10:55:28+02:00</time>
      </trkpt>
      <trkpt lat="43.94191" lon="6.24099">
        <ele>820</ele>
        <time>2020-09-26T10:55:28+02:00</time>
      </trkpt>
      <trkpt lat="43.94182" lon="6.24094">
        <ele>822</ele>
        <time>2020-09-26T10:57:36+02:00</time>
      </trkpt>
      <trkpt lat="43.94173" lon="6.24091">
        <ele>823</ele>
        <time>2020-09-26T10:57:36+02:00</time>
      </trkpt>
      <trkpt lat="43.94163" lon="6.24094">
        <ele>824</ele>
        <time>2020-09-26T10:57:36+02:00</time>
      </trkpt>
      <trkpt lat="43.9417" lon="6.24103">
        <ele>828</ele>
        <time>2020-09-26T10:59:44+02:00</time>
      </trkpt>
      <trkpt lat="43.94178" lon="6.24113">
        <ele>826</ele>
        <time>2020-09-26T10:59:44+02:00</time>
      </trkpt>
      <trkpt lat="43.94187" lon="6.24119">
        <ele>827</ele>
        <time>2020-09-26T10:59:44+02:00</time>
      </trkpt>
      <trkpt lat="43.94197" lon="6.2412">
        <ele>826</ele>
        <time>2020-09-26T10:59:44+02:00</time>
      </trkpt>
      <trkpt lat="43.94205" lon="6.24127">
        <ele>828</ele>
        <time>2020-09-26T10:59:44+02:00</time>
      </trkpt>
      <trkpt lat="43.94215" lon="6.24133">
        <ele>831</ele>
        <time>2020-09-26T10:59:44+02:00</time>
      </trkpt>
      <trkpt lat="43.94223" lon="6.2414">
        <ele>833</ele>
        <time>2020-09-26T10:59:44+02:00</time>
      </trkpt>
      <trkpt lat="43.94232" lon="6.2414">
        <ele>834</ele>
        <time>2020-09-26T10:59:44+02:00</time>
      </trkpt>
      <trkpt lat="43.94242" lon="6.24144">
        <ele>835</ele>
        <time>2020-09-26T10:59:44+02:00</time>
      </trkpt>
      <trkpt lat="43.94251" lon="6.24145">
        <ele>842</ele>
        <time>2020-09-26T10:59:44+02:00</time>
      </trkpt>
      <trkpt lat="43.9426" lon="6.24149">
        <ele>846</ele>
        <time>2020-09-26T11:01:52+02:00</time>
      </trkpt>
      <trkpt lat="43.94268" lon="6.24155">
        <ele>847</ele>
        <time>2020-09-26T11:01:52+02:00</time>
      </trkpt>
      <trkpt lat="43.94277" lon="6.24158">
        <ele>848</ele>
        <time>2020-09-26T11:01:52+02:00</time>
      </trkpt>
      <trkpt lat="43.94288" lon="6.24158">
        <ele>847</ele>
        <time>2020-09-26T11:01:52+02:00</time>
      </trkpt>
      <trkpt lat="43.94296" lon="6.24161">
        <ele>851</ele>
        <time>2020-09-26T11:01:52+02:00</time>
      </trkpt>
      <trkpt lat="43.94305" lon="6.24165">
        <ele>852</ele>
        <time>2020-09-26T11:01:52+02:00</time>
      </trkpt>
      <trkpt lat="43.94316" lon="6.24169">
        <ele>852</ele>
        <time>2020-09-26T11:01:52+02:00</time>
      </trkpt>
      <trkpt lat="43.94325" lon="6.24169">
        <ele>853</ele>
        <time>2020-09-26T11:01:52+02:00</time>
      </trkpt>
      <trkpt lat="43.94334" lon="6.24169">
        <ele>853</ele>
        <time>2020-09-26T11:01:52+02:00</time>
      </trkpt>
      <trkpt lat="43.94343" lon="6.24171">
        <ele>856</ele>
        <time>2020-09-26T11:01:52+02:00</time>
      </trkpt>
      <trkpt lat="43.94353" lon="6.24173">
        <ele>858</ele>
        <time>2020-09-26T11:01:52+02:00</time>
      </trkpt>
      <trkpt lat="43.94363" lon="6.24173">
        <ele>857</ele>
        <time>2020-09-26T11:04:00+02:00</time>
      </trkpt>
      <trkpt lat="43.94373" lon="6.24171">
        <ele>859</ele>
        <time>2020-09-26T11:04:00+02:00</time>
      </trkpt>
      <trkpt lat="43.94382" lon="6.2417">
        <ele>863</ele>
        <time>2020-09-26T11:04:00+02:00</time>
      </trkpt>
      <trkpt lat="43.94392" lon="6.2417">
        <ele>867</ele>
        <time>2020-09-26T11:04:00+02:00</time>
      </trkpt>
      <trkpt lat="43.94401" lon="6.24165">
        <ele>868</ele>
        <time>2020-09-26T11:04:00+02:00</time>
      </trkpt>
      <trkpt lat="43.9441" lon="6.24159">
        <ele>872</ele>
        <time>2020-09-26T11:04:00+02:00</time>
      </trkpt>
      <trkpt lat="43.9442" lon="6.24158">
        <ele>874</ele>
        <time>2020-09-26T11:04:00+02:00</time>
      </trkpt>
      <trkpt lat="43.9443" lon="6.24157">
        <ele>874</ele>
        <time>2020-09-26T11:04:00+02:00</time>
      </trkpt>
      <trkpt lat="43.94439" lon="6.24155">
        <ele>877</ele>
        <time>2020-09-26T11:04:00+02:00</time>
      </trkpt>
      <trkpt lat="43.94449" lon="6.24153">
        <ele>880</ele>
        <time>2020-09-26T11:04:00+02:00</time>
      </trkpt>
      <trkpt lat="43.94456" lon="6.24145">
        <ele>884</ele>
        <time>2020-09-26T11:04:00+02:00</time>
      </trkpt>
      <trkpt lat="43.94463" lon="6.24135">
        <ele>887</ele>
        <time>2020-09-26T11:06:08+02:00</time>
      </trkpt>
      <trkpt lat="43.94472" lon="6.24132">
        <ele>889</ele>
        <time>2020-09-26T11:06:08+02:00</time>
      </trkpt>
      <trkpt lat="43.9448" lon="6.24123">
        <ele>888</ele>
        <time>2020-09-26T11:06:08+02:00</time>
      </trkpt>
      <trkpt lat="43.94487" lon="6.24115">
        <ele>888</ele>
        <time>2020-09-26T11:06:08+02:00</time>
      </trkpt>
      <trkpt lat="43.94496" lon="6.24113">
        <ele>892</ele>
        <time>2020-09-26T11:06:08+02:00</time>
      </trkpt>
      <trkpt lat="43.94504" lon="6.24108">
        <ele>894</ele>
        <time>2020-09-26T11:06:08+02:00</time>
      </trkpt>
      <trkpt lat="43.94513" lon="6.24102">
        <ele>895</ele>
        <time>2020-09-26T11:06:08+02:00</time>
      </trkpt>
      <trkpt lat="43.94522" lon="6.24095">
        <ele>894</ele>
        <time>2020-09-26T11:06:08+02:00</time>
      </trkpt>
      <trkpt lat="43.94532" lon="6.24103">
        <ele>890</ele>
        <time>2020-09-26T11:10:24+02:00</time>
      </trkpt>
      <trkpt lat="43.94542" lon="6.24103">
        <ele>891</ele>
        <time>2020-09-26T11:10:24+02:00</time>
      </trkpt>
      <trkpt lat="43.9454" lon="6.24115">
        <ele>885</ele>
        <time>2020-09-26T11:10:24+02:00</time>
      </trkpt>
      <trkpt lat="43.94541" lon="6.24129">
        <ele>882</ele>
        <time>2020-09-26T11:10:24+02:00</time>
      </trkpt>
      <trkpt lat="43.94547" lon="6.24139">
        <ele>882</ele>
        <time>2020-09-26T11:10:24+02:00</time>
      </trkpt>
      <trkpt lat="43.94549" lon="6.24152">
        <ele>880</ele>
        <time>2020-09-26T11:10:24+02:00</time>
      </trkpt>
      <trkpt lat="43.94549" lon="6.24165">
        <ele>879</ele>
        <time>2020-09-26T11:10:24+02:00</time>
      </trkpt>
      <trkpt lat="43.94548" lon="6.24179">
        <ele>876</ele>
        <time>2020-09-26T11:10:24+02:00</time>
      </trkpt>
      <trkpt lat="43.94551" lon="6.24192">
        <ele>874</ele>
        <time>2020-09-26T11:10:24+02:00</time>
      </trkpt>
      <trkpt lat="43.94556" lon="6.24203">
        <ele>871</ele>
        <time>2020-09-26T11:10:24+02:00</time>
      </trkpt>
      <trkpt lat="43.94562" lon="6.24213">
        <ele>870</ele>
        <time>2020-09-26T11:10:24+02:00</time>
      </trkpt>
      <trkpt lat="43.94567" lon="6.24223">
        <ele>868</ele>
        <time>2020-09-26T11:10:24+02:00</time>
      </trkpt>
      <trkpt lat="43.94571" lon="6.24236">
        <ele>867</ele>
        <time>2020-09-26T11:10:24+02:00</time>
      </trkpt>
      <trkpt lat="43.94576" lon="6.24246">
        <ele>867</ele>
        <time>2020-09-26T11:10:24+02:00</time>
      </trkpt>
      <trkpt lat="43.94578" lon="6.2426">
        <ele>865</ele>
        <time>2020-09-26T11:12:32+02:00</time>
      </trkpt>
      <trkpt lat="43.94583" lon="6.24275">
        <ele>866</ele>
        <time>2020-09-26T11:12:32+02:00</time>
      </trkpt>
      <trkpt lat="43.94587" lon="6.24287">
        <ele>865</ele>
        <time>2020-09-26T11:12:32+02:00</time>
      </trkpt>
      <trkpt lat="43.94587" lon="6.24301">
        <ele>864</ele>
        <time>2020-09-26T11:12:32+02:00</time>
      </trkpt>
      <trkpt lat="43.94586" lon="6.24314">
        <ele>862</ele>
        <time>2020-09-26T11:12:32+02:00</time>
      </trkpt>
      <trkpt lat="43.94583" lon="6.24326">
        <ele>861</ele>
        <time>2020-09-26T11:12:32+02:00</time>
      </trkpt>
      <trkpt lat="43.94584" lon="6.2434">
        <ele>860</ele>
        <time>2020-09-26T11:12:32+02:00</time>
      </trkpt>
      <trkpt lat="43.94587" lon="6.24353">
        <ele>861</ele>
        <time>2020-09-26T11:12:32+02:00</time>
      </trkpt>
      <trkpt lat="43.94592" lon="6.24363">
        <ele>866</ele>
        <time>2020-09-26T11:12:32+02:00</time>
      </trkpt>
      <trkpt lat="43.94598" lon="6.24374">
        <ele>864</ele>
        <time>2020-09-26T11:12:32+02:00</time>
      </trkpt>
      <trkpt lat="43.94602" lon="6.24387">
        <ele>860</ele>
        <time>2020-09-26T11:12:32+02:00</time>
      </trkpt>
      <trkpt lat="43.94604" lon="6.24399">
        <ele>858</ele>
        <time>2020-09-26T11:12:32+02:00</time>
      </trkpt>
      <trkpt lat="43.9461" lon="6.24409">
        <ele>857</ele>
        <time>2020-09-26T11:12:32+02:00</time>
      </trkpt>
      <trkpt lat="43.94615" lon="6.2442">
        <ele>855</ele>
        <time>2020-09-26T11:12:32+02:00</time>
      </trkpt>
      <trkpt lat="43.94622" lon="6.2443">
        <ele>855</ele>
        <time>2020-09-26T11:14:40+02:00</time>
      </trkpt>
      <trkpt lat="43.94629" lon="6.24439">
        <ele>857</ele>
        <time>2020-09-26T11:14:40+02:00</time>
      </trkpt>
      <trkpt lat="43.94635" lon="6.2445">
        <ele>855</ele>
        <time>2020-09-26T11:14:40+02:00</time>
      </trkpt>
      <trkpt lat="43.94639" lon="6.24462">
        <ele>856</ele>
        <time>2020-09-26T11:14:40+02:00</time>
      </trkpt>
      <trkpt lat="43.94646" lon="6.24472">
        <ele>855</ele>
        <time>2020-09-26T11:14:40+02:00</time>
      </trkpt>
      <trkpt lat="43.94652" lon="6.24483">
        <ele>855</ele>
        <time>2020-09-26T11:14:40+02:00</time>
      </trkpt>
      <trkpt lat="43.94658" lon="6.24491">
        <ele>854</ele>
        <time>2020-09-26T11:14:40+02:00</time>
      </trkpt>
      <trkpt lat="43.94664" lon="6.24503">
        <ele>853</ele>
        <time>2020-09-26T11:14:40+02:00</time>
      </trkpt>
      <trkpt lat="43.94668" lon="6.24515">
        <ele>857</ele>
        <time>2020-09-26T11:14:40+02:00</time>
      </trkpt>
      <trkpt lat="43.94676" lon="6.24521">
        <ele>857</ele>
        <time>2020-09-26T11:14:40+02:00</time>
      </trkpt>
      <trkpt lat="43.9468" lon="6.24534">
        <ele>858</ele>
        <time>2020-09-26T11:14:40+02:00</time>
      </trkpt>
      <trkpt lat="43.94687" lon="6.24543">
        <ele>858</ele>
        <time>2020-09-26T11:14:40+02:00</time>
      </trkpt>
      <trkpt lat="43.94693" lon="6.24552">
        <ele>856</ele>
        <time>2020-09-26T11:14:40+02:00</time>
      </trkpt>
      <trkpt lat="43.947" lon="6.2456">
        <ele>857</ele>
        <time>2020-09-26T11:14:40+02:00</time>
      </trkpt>
      <trkpt lat="43.94708" lon="6.24567">
        <ele>856</ele>
        <time>2020-09-26T11:16:48+02:00</time>
      </trkpt>
      <trkpt lat="43.94713" lon="6.24577">
        <ele>854</ele>
        <time>2020-09-26T11:16:48+02:00</time>
      </trkpt>
      <trkpt lat="43.94721" lon="6.24586">
        <ele>853</ele>
        <time>2020-09-26T11:16:48+02:00</time>
      </trkpt>
      <trkpt lat="43.9473" lon="6.24593">
        <ele>853</ele>
        <time>2020-09-26T11:16:48+02:00</time>
      </trkpt>
      <trkpt lat="43.94739" lon="6.246">
        <ele>851</ele>
        <time>2020-09-26T11:16:48+02:00</time>
      </trkpt>
      <trkpt lat="43.94747" lon="6.24605">
        <ele>848</ele>
        <time>2020-09-26T11:16:48+02:00</time>
      </trkpt>
      <trkpt lat="43.94755" lon="6.24611">
        <ele>848</ele>
        <time>2020-09-26T11:16:48+02:00</time>
      </trkpt>
      <trkpt lat="43.94763" lon="6.24616">
        <ele>847</ele>
        <time>2020-09-26T11:16:48+02:00</time>
      </trkpt>
      <trkpt lat="43.94771" lon="6.24625">
        <ele>846</ele>
        <time>2020-09-26T11:16:48+02:00</time>
      </trkpt>
      <trkpt lat="43.94776" lon="6.24636">
        <ele>845</ele>
        <time>2020-09-26T11:16:48+02:00</time>
      </trkpt>
      <trkpt lat="43.94779" lon="6.24649">
        <ele>846</ele>
        <time>2020-09-26T11:16:48+02:00</time>
      </trkpt>
      <trkpt lat="43.94782" lon="6.24662">
        <ele>846</ele>
        <time>2020-09-26T11:16:48+02:00</time>
      </trkpt>
      <trkpt lat="43.94789" lon="6.24672">
        <ele>846</ele>
        <time>2020-09-26T11:16:48+02:00</time>
      </trkpt>
      <trkpt lat="43.94796" lon="6.24681">
        <ele>846</ele>
        <time>2020-09-26T11:18:56+02:00</time>
      </trkpt>
      <trkpt lat="43.94803" lon="6.2469">
        <ele>844</ele>
        <time>2020-09-26T11:18:56+02:00</time>
      </trkpt>
      <trkpt lat="43.9481" lon="6.247">
        <ele>844</ele>
        <time>2020-09-26T11:18:56+02:00</time>
      </trkpt>
      <trkpt lat="43.94817" lon="6.2471">
        <ele>843</ele>
        <time>2020-09-26T11:18:56+02:00</time>
      </trkpt>
      <trkpt lat="43.94826" lon="6.24716">
        <ele>842</ele>
        <time>2020-09-26T11:18:56+02:00</time>
      </trkpt>
      <trkpt lat="43.94834" lon="6.24723">
        <ele>842</ele>
        <time>2020-09-26T11:18:56+02:00</time>
      </trkpt>
      <trkpt lat="43.94843" lon="6.24728">
        <ele>842</ele>
        <time>2020-09-26T11:18:56+02:00</time>
      </trkpt>
      <trkpt lat="43.94853" lon="6.2473">
        <ele>844</ele>
        <time>2020-09-26T11:18:56+02:00</time>
      </trkpt>
      <trkpt lat="43.94863" lon="6.2473">
        <ele>843</ele>
        <time>2020-09-26T11:18:56+02:00</time>
      </trkpt>
      <trkpt lat="43.94871" lon="6.24735">
        <ele>841</ele>
        <time>2020-09-26T11:18:56+02:00</time>
      </trkpt>
      <trkpt lat="43.94877" lon="6.24744">
        <ele>837</ele>
        <time>2020-09-26T11:18:56+02:00</time>
      </trkpt>
      <trkpt lat="43.94882" lon="6.24755">
        <ele>839</ele>
        <time>2020-09-26T11:18:56+02:00</time>
      </trkpt>
      <trkpt lat="43.94887" lon="6.24766">
        <ele>840</ele>
        <time>2020-09-26T11:18:56+02:00</time>
      </trkpt>
      <trkpt lat="43.94889" lon="6.24779">
        <ele>840</ele>
        <time>2020-09-26T11:18:56+02:00</time>
      </trkpt>
      <trkpt lat="43.94891" lon="6.24792">
        <ele>840</ele>
        <time>2020-09-26T11:18:56+02:00</time>
      </trkpt>
      <trkpt lat="43.94897" lon="6.24802">
        <ele>840</ele>
        <time>2020-09-26T11:18:56+02:00</time>
      </trkpt>
      <trkpt lat="43.94903" lon="6.24812">
        <ele>841</ele>
        <time>2020-09-26T11:21:04+02:00</time>
      </trkpt>
      <trkpt lat="43.94911" lon="6.24818">
        <ele>843</ele>
        <time>2020-09-26T11:21:04+02:00</time>
      </trkpt>
      <trkpt lat="43.9492" lon="6.24822">
        <ele>846</ele>
        <time>2020-09-26T11:21:04+02:00</time>
      </trkpt>
      <trkpt lat="43.94925" lon="6.24832">
        <ele>847</ele>
        <time>2020-09-26T11:21:04+02:00</time>
      </trkpt>
      <trkpt lat="43.94934" lon="6.24836">
        <ele>847</ele>
        <time>2020-09-26T11:21:04+02:00</time>
      </trkpt>
      <trkpt lat="43.94943" lon="6.24832">
        <ele>847</ele>
        <time>2020-09-26T11:21:04+02:00</time>
      </trkpt>
      <trkpt lat="43.94952" lon="6.24828">
        <ele>849</ele>
        <time>2020-09-26T11:21:04+02:00</time>
      </trkpt>
      <trkpt lat="43.9496" lon="6.24836">
        <ele>851</ele>
        <time>2020-09-26T11:21:04+02:00</time>
      </trkpt>
      <trkpt lat="43.94966" lon="6.24846">
        <ele>853</ele>
        <time>2020-09-26T11:21:04+02:00</time>
      </trkpt>
      <trkpt lat="43.94965" lon="6.24859">
        <ele>852</ele>
        <time>2020-09-26T11:21:04+02:00</time>
      </trkpt>
      <trkpt lat="43.94968" lon="6.24871">
        <ele>850</ele>
        <time>2020-09-26T11:21:04+02:00</time>
      </trkpt>
      <trkpt lat="43.94972" lon="6.24883">
        <ele>850</ele>
        <time>2020-09-26T11:21:04+02:00</time>
      </trkpt>
      <trkpt lat="43.94978" lon="6.24893">
        <ele>850</ele>
        <time>2020-09-26T11:21:04+02:00</time>
      </trkpt>
      <trkpt lat="43.94981" lon="6.24905">
        <ele>850</ele>
        <time>2020-09-26T11:21:04+02:00</time>
      </trkpt>
      <trkpt lat="43.94985" lon="6.24917">
        <ele>850</ele>
        <time>2020-09-26T11:21:04+02:00</time>
      </trkpt>
      <trkpt lat="43.94989" lon="6.24929">
        <ele>851</ele>
        <time>2020-09-26T11:23:12+02:00</time>
      </trkpt>
      <trkpt lat="43.94994" lon="6.2494">
        <ele>852</ele>
        <time>2020-09-26T11:23:12+02:00</time>
      </trkpt>
      <trkpt lat="43.94998" lon="6.24952">
        <ele>853</ele>
        <time>2020-09-26T11:23:12+02:00</time>
      </trkpt>
      <trkpt lat="43.94999" lon="6.24964">
        <ele>853</ele>
        <time>2020-09-26T11:23:12+02:00</time>
      </trkpt>
      <trkpt lat="43.95001" lon="6.24977">
        <ele>854</ele>
        <time>2020-09-26T11:23:12+02:00</time>
      </trkpt>
      <trkpt lat="43.95003" lon="6.2499">
        <ele>857</ele>
        <time>2020-09-26T11:23:12+02:00</time>
      </trkpt>
      <trkpt lat="43.95003" lon="6.25003">
        <ele>861</ele>
        <time>2020-09-26T11:23:12+02:00</time>
      </trkpt>
      <trkpt lat="43.95005" lon="6.25015">
        <ele>862</ele>
        <time>2020-09-26T11:23:12+02:00</time>
      </trkpt>
      <trkpt lat="43.95007" lon="6.25028">
        <ele>865</ele>
        <time>2020-09-26T11:23:12+02:00</time>
      </trkpt>
      <trkpt lat="43.95012" lon="6.2504">
        <ele>870</ele>
        <time>2020-09-26T11:23:12+02:00</time>
      </trkpt>
      <trkpt lat="43.95018" lon="6.2505">
        <ele>869</ele>
        <time>2020-09-26T11:23:12+02:00</time>
      </trkpt>
      <trkpt lat="43.95025" lon="6.25061">
        <ele>869</ele>
        <time>2020-09-26T11:23:12+02:00</time>
      </trkpt>
      <trkpt lat="43.95033" lon="6.25067">
        <ele>870</ele>
        <time>2020-09-26T11:23:12+02:00</time>
      </trkpt>
      <trkpt lat="43.9504" lon="6.25075">
        <ele>870</ele>
        <time>2020-09-26T11:25:20+02:00</time>
      </trkpt>
      <trkpt lat="43.95047" lon="6.25085">
        <ele>872</ele>
        <time>2020-09-26T11:25:20+02:00</time>
      </trkpt>
      <trkpt lat="43.95056" lon="6.2509">
        <ele>870</ele>
        <time>2020-09-26T11:25:20+02:00</time>
      </trkpt>
      <trkpt lat="43.95065" lon="6.25096">
        <ele>869</ele>
        <time>2020-09-26T11:25:20+02:00</time>
      </trkpt>
      <trkpt lat="43.95073" lon="6.25103">
        <ele>870</ele>
        <time>2020-09-26T11:25:20+02:00</time>
      </trkpt>
      <trkpt lat="43.9508" lon="6.25111">
        <ele>870</ele>
        <time>2020-09-26T11:25:20+02:00</time>
      </trkpt>
      <trkpt lat="43.95088" lon="6.2512">
        <ele>870</ele>
        <time>2020-09-26T11:25:20+02:00</time>
      </trkpt>
      <trkpt lat="43.95094" lon="6.25129">
        <ele>869</ele>
        <time>2020-09-26T11:25:20+02:00</time>
      </trkpt>
      <trkpt lat="43.95099" lon="6.25141">
        <ele>870</ele>
        <time>2020-09-26T11:25:20+02:00</time>
      </trkpt>
      <trkpt lat="43.951" lon="6.25154">
        <ele>871</ele>
        <time>2020-09-26T11:25:20+02:00</time>
      </trkpt>
      <trkpt lat="43.95102" lon="6.25169">
        <ele>871</ele>
        <time>2020-09-26T11:25:20+02:00</time>
      </trkpt>
      <trkpt lat="43.95104" lon="6.25182">
        <ele>872</ele>
        <time>2020-09-26T11:25:20+02:00</time>
      </trkpt>
      <trkpt lat="43.95108" lon="6.25194">
        <ele>870</ele>
        <time>2020-09-26T11:25:20+02:00</time>
      </trkpt>
      <trkpt lat="43.95109" lon="6.25207">
        <ele>866</ele>
        <time>2020-09-26T11:27:28+02:00</time>
      </trkpt>
      <trkpt lat="43.95115" lon="6.25217">
        <ele>868</ele>
        <time>2020-09-26T11:27:28+02:00</time>
      </trkpt>
      <trkpt lat="43.95121" lon="6.25227">
        <ele>869</ele>
        <time>2020-09-26T11:27:28+02:00</time>
      </trkpt>
      <trkpt lat="43.95128" lon="6.25235">
        <ele>867</ele>
        <time>2020-09-26T11:27:28+02:00</time>
      </trkpt>
      <trkpt lat="43.95135" lon="6.25243">
        <ele>868</ele>
        <time>2020-09-26T11:27:28+02:00</time>
      </trkpt>
      <trkpt lat="43.95144" lon="6.25249">
        <ele>869</ele>
        <time>2020-09-26T11:27:28+02:00</time>
      </trkpt>
      <trkpt lat="43.95152" lon="6.25257">
        <ele>869</ele>
        <time>2020-09-26T11:27:28+02:00</time>
      </trkpt>
      <trkpt lat="43.95159" lon="6.25265">
        <ele>868</ele>
        <time>2020-09-26T11:27:28+02:00</time>
      </trkpt>
      <trkpt lat="43.95166" lon="6.25273">
        <ele>870</ele>
        <time>2020-09-26T11:27:28+02:00</time>
      </trkpt>
      <trkpt lat="43.9517" lon="6.25285">
        <ele>869</ele>
        <time>2020-09-26T11:27:28+02:00</time>
      </trkpt>
      <trkpt lat="43.9518" lon="6.25287">
        <ele>870</ele>
        <time>2020-09-26T11:27:28+02:00</time>
      </trkpt>
      <trkpt lat="43.95188" lon="6.25293">
        <ele>870</ele>
        <time>2020-09-26T11:27:28+02:00</time>
      </trkpt>
      <trkpt lat="43.95197" lon="6.25298">
        <ele>870</ele>
        <time>2020-09-26T11:29:36+02:00</time>
      </trkpt>
      <trkpt lat="43.95204" lon="6.25308">
        <ele>871</ele>
        <time>2020-09-26T11:29:36+02:00</time>
      </trkpt>
      <trkpt lat="43.95208" lon="6.2532">
        <ele>869</ele>
        <time>2020-09-26T11:29:36+02:00</time>
      </trkpt>
      <trkpt lat="43.95218" lon="6.25327">
        <ele>870</ele>
        <time>2020-09-26T11:29:36+02:00</time>
      </trkpt>
      <trkpt lat="43.95225" lon="6.25337">
        <ele>870</ele>
        <time>2020-09-26T11:29:36+02:00</time>
      </trkpt>
      <trkpt lat="43.95232" lon="6.25345">
        <ele>871</ele>
        <time>2020-09-26T11:29:36+02:00</time>
      </trkpt>
      <trkpt lat="43.9524" lon="6.25353">
        <ele>871</ele>
        <time>2020-09-26T11:29:36+02:00</time>
      </trkpt>
      <trkpt lat="43.95249" lon="6.25356">
        <ele>871</ele>
        <time>2020-09-26T11:29:36+02:00</time>
      </trkpt>
      <trkpt lat="43.95258" lon="6.25354">
        <ele>871</ele>
        <time>2020-09-26T11:29:36+02:00</time>
      </trkpt>
      <trkpt lat="43.95268" lon="6.25355">
        <ele>873</ele>
        <time>2020-09-26T11:29:36+02:00</time>
      </trkpt>
      <trkpt lat="43.95277" lon="6.25354">
        <ele>873</ele>
        <time>2020-09-26T11:29:36+02:00</time>
      </trkpt>
      <trkpt lat="43.95286" lon="6.25358">
        <ele>874</ele>
        <time>2020-09-26T11:29:36+02:00</time>
      </trkpt>
      <trkpt lat="43.95295" lon="6.25361">
        <ele>874</ele>
        <time>2020-09-26T11:29:36+02:00</time>
      </trkpt>
      <trkpt lat="43.95305" lon="6.25361">
        <ele>878</ele>
        <time>2020-09-26T11:29:36+02:00</time>
      </trkpt>
      <trkpt lat="43.95315" lon="6.25364">
        <ele>882</ele>
        <time>2020-09-26T11:33:52+02:00</time>
      </trkpt>
      <trkpt lat="43.95324" lon="6.25364">
        <ele>885</ele>
        <time>2020-09-26T11:33:52+02:00</time>
      </trkpt>
      <trkpt lat="43.95335" lon="6.25365">
        <ele>885</ele>
        <time>2020-09-26T11:33:52+02:00</time>
      </trkpt>
      <trkpt lat="43.95344" lon="6.25363">
        <ele>887</ele>
        <time>2020-09-26T11:33:52+02:00</time>
      </trkpt>
      <trkpt lat="43.95352" lon="6.25357">
        <ele>886</ele>
        <time>2020-09-26T11:33:52+02:00</time>
      </trkpt>
      <trkpt lat="43.95362" lon="6.25356">
        <ele>885</ele>
        <time>2020-09-26T11:33:52+02:00</time>
      </trkpt>
      <trkpt lat="43.95372" lon="6.25357">
        <ele>887</ele>
        <time>2020-09-26T11:33:52+02:00</time>
      </trkpt>
      <trkpt lat="43.95381" lon="6.25363">
        <ele>885</ele>
        <time>2020-09-26T11:33:52+02:00</time>
      </trkpt>
      <trkpt lat="43.9539" lon="6.25365">
        <ele>881</ele>
        <time>2020-09-26T11:33:52+02:00</time>
      </trkpt>
      <trkpt lat="43.95398" lon="6.25371">
        <ele>872</ele>
        <time>2020-09-26T11:33:52+02:00</time>
      </trkpt>
      <trkpt lat="43.95407" lon="6.25378">
        <ele>870</ele>
        <time>2020-09-26T11:36:00+02:00</time>
      </trkpt>
      <trkpt lat="43.95417" lon="6.25376">
        <ele>871</ele>
        <time>2020-09-26T11:36:00+02:00</time>
      </trkpt>
      <trkpt lat="43.95427" lon="6.25374">
        <ele>869</ele>
        <time>2020-09-26T11:36:00+02:00</time>
      </trkpt>
      <trkpt lat="43.95435" lon="6.25382">
        <ele>864</ele>
        <time>2020-09-26T11:36:00+02:00</time>
      </trkpt>
      <trkpt lat="43.95444" lon="6.25385">
        <ele>861</ele>
        <time>2020-09-26T11:36:00+02:00</time>
      </trkpt>
      <trkpt lat="43.95446" lon="6.25372">
        <ele>863</ele>
        <time>2020-09-26T11:36:00+02:00</time>
      </trkpt>
      <trkpt lat="43.95441" lon="6.25359">
        <ele>862</ele>
        <time>2020-09-26T11:36:00+02:00</time>
      </trkpt>
      <trkpt lat="43.95445" lon="6.25347">
        <ele>854</ele>
        <time>2020-09-26T11:36:00+02:00</time>
      </trkpt>
      <trkpt lat="43.95454" lon="6.25347">
        <ele>851</ele>
        <time>2020-09-26T11:36:00+02:00</time>
      </trkpt>
      <trkpt lat="43.95463" lon="6.25347">
        <ele>852</ele>
        <time>2020-09-26T11:36:00+02:00</time>
      </trkpt>
      <trkpt lat="43.95471" lon="6.25354">
        <ele>852</ele>
        <time>2020-09-26T11:36:00+02:00</time>
      </trkpt>
      <trkpt lat="43.95482" lon="6.25356">
        <ele>853</ele>
        <time>2020-09-26T11:36:00+02:00</time>
      </trkpt>
      <trkpt lat="43.95473" lon="6.25359">
        <ele>863</ele>
        <time>2020-09-26T11:38:08+02:00</time>
      </trkpt>
      <trkpt lat="43.95476" lon="6.25347">
        <ele>860</ele>
        <time>2020-09-26T11:38:08+02:00</time>
      </trkpt>
      <trkpt lat="43.95481" lon="6.2536">
        <ele>857</ele>
        <time>2020-09-26T11:40:16+02:00</time>
      </trkpt>
      <trkpt lat="43.95472" lon="6.25353">
        <ele>855</ele>
        <time>2020-09-26T11:40:16+02:00</time>
      </trkpt>
      <trkpt lat="43.95463" lon="6.2535">
        <ele>857</ele>
        <time>2020-09-26T11:40:16+02:00</time>
      </trkpt>
      <trkpt lat="43.95454" lon="6.25348">
        <ele>859</ele>
        <time>2020-09-26T11:42:24+02:00</time>
      </trkpt>
      <trkpt lat="43.95444" lon="6.25349">
        <ele>863</ele>
        <time>2020-09-26T11:42:24+02:00</time>
      </trkpt>
      <trkpt lat="43.95435" lon="6.25347">
        <ele>865</ele>
        <time>2020-09-26T11:42:24+02:00</time>
      </trkpt>
      <trkpt lat="43.95441" lon="6.25356">
        <ele>862</ele>
        <time>2020-09-26T11:42:24+02:00</time>
      </trkpt>
      <trkpt lat="43.95449" lon="6.25363">
        <ele>857</ele>
        <time>2020-09-26T11:42:24+02:00</time>
      </trkpt>
      <trkpt lat="43.95453" lon="6.25375">
        <ele>851</ele>
        <time>2020-09-26T11:42:24+02:00</time>
      </trkpt>
      <trkpt lat="43.95443" lon="6.25375">
        <ele>862</ele>
        <time>2020-09-26T11:42:24+02:00</time>
      </trkpt>
      <trkpt lat="43.95435" lon="6.25372">
        <ele>871</ele>
        <time>2020-09-26T11:44:32+02:00</time>
      </trkpt>
      <trkpt lat="43.95427" lon="6.25381">
        <ele>871</ele>
        <time>2020-09-26T11:44:32+02:00</time>
      </trkpt>
      <trkpt lat="43.95418" lon="6.25374">
        <ele>878</ele>
        <time>2020-09-26T11:44:32+02:00</time>
      </trkpt>
      <trkpt lat="43.95409" lon="6.25369">
        <ele>886</ele>
        <time>2020-09-26T11:44:32+02:00</time>
      </trkpt>
      <trkpt lat="43.954" lon="6.25367">
        <ele>892</ele>
        <time>2020-09-26T11:44:32+02:00</time>
      </trkpt>
      <trkpt lat="43.95391" lon="6.25371">
        <ele>894</ele>
        <time>2020-09-26T11:44:32+02:00</time>
      </trkpt>
      <trkpt lat="43.95382" lon="6.25367">
        <ele>896</ele>
        <time>2020-09-26T11:44:32+02:00</time>
      </trkpt>
      <trkpt lat="43.95373" lon="6.25367">
        <ele>894</ele>
        <time>2020-09-26T11:44:32+02:00</time>
      </trkpt>
      <trkpt lat="43.95364" lon="6.2537">
        <ele>893</ele>
        <time>2020-09-26T11:44:32+02:00</time>
      </trkpt>
      <trkpt lat="43.95354" lon="6.25374">
        <ele>892</ele>
        <time>2020-09-26T11:44:32+02:00</time>
      </trkpt>
      <trkpt lat="43.95344" lon="6.25376">
        <ele>892</ele>
        <time>2020-09-26T11:44:32+02:00</time>
      </trkpt>
      <trkpt lat="43.95334" lon="6.25376">
        <ele>893</ele>
        <time>2020-09-26T11:46:40+02:00</time>
      </trkpt>
      <trkpt lat="43.95325" lon="6.25379">
        <ele>892</ele>
        <time>2020-09-26T11:46:40+02:00</time>
      </trkpt>
      <trkpt lat="43.95316" lon="6.25378">
        <ele>893</ele>
        <time>2020-09-26T11:46:40+02:00</time>
      </trkpt>
      <trkpt lat="43.95307" lon="6.25374">
        <ele>892</ele>
        <time>2020-09-26T11:46:40+02:00</time>
      </trkpt>
      <trkpt lat="43.95298" lon="6.25372">
        <ele>893</ele>
        <time>2020-09-26T11:46:40+02:00</time>
      </trkpt>
      <trkpt lat="43.95291" lon="6.25362">
        <ele>893</ele>
        <time>2020-09-26T11:46:40+02:00</time>
      </trkpt>
      <trkpt lat="43.95284" lon="6.25354">
        <ele>894</ele>
        <time>2020-09-26T11:46:40+02:00</time>
      </trkpt>
      <trkpt lat="43.95274" lon="6.25353">
        <ele>896</ele>
        <time>2020-09-26T11:46:40+02:00</time>
      </trkpt>
      <trkpt lat="43.95265" lon="6.25351">
        <ele>898</ele>
        <time>2020-09-26T11:46:40+02:00</time>
      </trkpt>
      <trkpt lat="43.95256" lon="6.25344">
        <ele>898</ele>
        <time>2020-09-26T11:46:40+02:00</time>
      </trkpt>
      <trkpt lat="43.95249" lon="6.25334">
        <ele>899</ele>
        <time>2020-09-26T11:46:40+02:00</time>
      </trkpt>
      <trkpt lat="43.95241" lon="6.25327">
        <ele>901</ele>
        <time>2020-09-26T11:46:40+02:00</time>
      </trkpt>
      <trkpt lat="43.95232" lon="6.25321">
        <ele>901</ele>
        <time>2020-09-26T11:46:40+02:00</time>
      </trkpt>
      <trkpt lat="43.95223" lon="6.25318">
        <ele>902</ele>
        <time>2020-09-26T11:46:40+02:00</time>
      </trkpt>
      <trkpt lat="43.95218" lon="6.25306">
        <ele>896</ele>
        <time>2020-09-26T11:46:40+02:00</time>
      </trkpt>
      <trkpt lat="43.95211" lon="6.25296">
        <ele>895</ele>
        <time>2020-09-26T11:48:48+02:00</time>
      </trkpt>
      <trkpt lat="43.95202" lon="6.2529">
        <ele>896</ele>
        <time>2020-09-26T11:48:48+02:00</time>
      </trkpt>
      <trkpt lat="43.95193" lon="6.25289">
        <ele>897</ele>
        <time>2020-09-26T11:48:48+02:00</time>
      </trkpt>
      <trkpt lat="43.95185" lon="6.25281">
        <ele>898</ele>
        <time>2020-09-26T11:48:48+02:00</time>
      </trkpt>
      <trkpt lat="43.9518" lon="6.25271">
        <ele>893</ele>
        <time>2020-09-26T11:48:48+02:00</time>
      </trkpt>
      <trkpt lat="43.95172" lon="6.25264">
        <ele>892</ele>
        <time>2020-09-26T11:48:48+02:00</time>
      </trkpt>
      <trkpt lat="43.95166" lon="6.25254">
        <ele>893</ele>
        <time>2020-09-26T11:48:48+02:00</time>
      </trkpt>
      <trkpt lat="43.95158" lon="6.25247">
        <ele>894</ele>
        <time>2020-09-26T11:48:48+02:00</time>
      </trkpt>
      <trkpt lat="43.95151" lon="6.2524">
        <ele>895</ele>
        <time>2020-09-26T11:48:48+02:00</time>
      </trkpt>
      <trkpt lat="43.95144" lon="6.25231">
        <ele>896</ele>
        <time>2020-09-26T11:48:48+02:00</time>
      </trkpt>
      <trkpt lat="43.95137" lon="6.25222">
        <ele>897</ele>
        <time>2020-09-26T11:48:48+02:00</time>
      </trkpt>
      <trkpt lat="43.9513" lon="6.25211">
        <ele>897</ele>
        <time>2020-09-26T11:48:48+02:00</time>
      </trkpt>
      <trkpt lat="43.95124" lon="6.25201">
        <ele>896</ele>
        <time>2020-09-26T11:50:56+02:00</time>
      </trkpt>
      <trkpt lat="43.9512" lon="6.25189">
        <ele>894</ele>
        <time>2020-09-26T11:50:56+02:00</time>
      </trkpt>
      <trkpt lat="43.95116" lon="6.25177">
        <ele>892</ele>
        <time>2020-09-26T11:50:56+02:00</time>
      </trkpt>
      <trkpt lat="43.95114" lon="6.25164">
        <ele>889</ele>
        <time>2020-09-26T11:50:56+02:00</time>
      </trkpt>
      <trkpt lat="43.95113" lon="6.25151">
        <ele>886</ele>
        <time>2020-09-26T11:50:56+02:00</time>
      </trkpt>
      <trkpt lat="43.95108" lon="6.25139">
        <ele>883</ele>
        <time>2020-09-26T11:50:56+02:00</time>
      </trkpt>
      <trkpt lat="43.95104" lon="6.25128">
        <ele>883</ele>
        <time>2020-09-26T11:50:56+02:00</time>
      </trkpt>
      <trkpt lat="43.95097" lon="6.25118">
        <ele>884</ele>
        <time>2020-09-26T11:50:56+02:00</time>
      </trkpt>
      <trkpt lat="43.95088" lon="6.25112">
        <ele>883</ele>
        <time>2020-09-26T11:50:56+02:00</time>
      </trkpt>
      <trkpt lat="43.9508" lon="6.25105">
        <ele>882</ele>
        <time>2020-09-26T11:50:56+02:00</time>
      </trkpt>
      <trkpt lat="43.95072" lon="6.25097">
        <ele>884</ele>
        <time>2020-09-26T11:50:56+02:00</time>
      </trkpt>
      <trkpt lat="43.95063" lon="6.25092">
        <ele>885</ele>
        <time>2020-09-26T11:50:56+02:00</time>
      </trkpt>
      <trkpt lat="43.95057" lon="6.25082">
        <ele>886</ele>
        <time>2020-09-26T11:50:56+02:00</time>
      </trkpt>
      <trkpt lat="43.95049" lon="6.25074">
        <ele>883</ele>
        <time>2020-09-26T11:50:56+02:00</time>
      </trkpt>
      <trkpt lat="43.95043" lon="6.25065">
        <ele>883</ele>
        <time>2020-09-26T11:53:04+02:00</time>
      </trkpt>
      <trkpt lat="43.95036" lon="6.25057">
        <ele>884</ele>
        <time>2020-09-26T11:53:04+02:00</time>
      </trkpt>
      <trkpt lat="43.95028" lon="6.25049">
        <ele>885</ele>
        <time>2020-09-26T11:53:04+02:00</time>
      </trkpt>
      <trkpt lat="43.95021" lon="6.2504">
        <ele>886</ele>
        <time>2020-09-26T11:53:04+02:00</time>
      </trkpt>
      <trkpt lat="43.95017" lon="6.25029">
        <ele>883</ele>
        <time>2020-09-26T11:53:04+02:00</time>
      </trkpt>
      <trkpt lat="43.95012" lon="6.25016">
        <ele>879</ele>
        <time>2020-09-26T11:53:04+02:00</time>
      </trkpt>
      <trkpt lat="43.95011" lon="6.25004">
        <ele>875</ele>
        <time>2020-09-26T11:53:04+02:00</time>
      </trkpt>
      <trkpt lat="43.95008" lon="6.2499">
        <ele>873</ele>
        <time>2020-09-26T11:53:04+02:00</time>
      </trkpt>
      <trkpt lat="43.95008" lon="6.24977">
        <ele>872</ele>
        <time>2020-09-26T11:53:04+02:00</time>
      </trkpt>
      <trkpt lat="43.95006" lon="6.24964">
        <ele>870</ele>
        <time>2020-09-26T11:53:04+02:00</time>
      </trkpt>
      <trkpt lat="43.95004" lon="6.24951">
        <ele>869</ele>
        <time>2020-09-26T11:53:04+02:00</time>
      </trkpt>
      <trkpt lat="43.94998" lon="6.24942">
        <ele>870</ele>
        <time>2020-09-26T11:53:04+02:00</time>
      </trkpt>
      <trkpt lat="43.94994" lon="6.24929">
        <ele>865</ele>
        <time>2020-09-26T11:53:04+02:00</time>
      </trkpt>
      <trkpt lat="43.9499" lon="6.24916">
        <ele>864</ele>
        <time>2020-09-26T11:55:12+02:00</time>
      </trkpt>
      <trkpt lat="43.94983" lon="6.24908">
        <ele>862</ele>
        <time>2020-09-26T11:55:12+02:00</time>
      </trkpt>
      <trkpt lat="43.94979" lon="6.24894">
        <ele>861</ele>
        <time>2020-09-26T11:55:12+02:00</time>
      </trkpt>
      <trkpt lat="43.94975" lon="6.24882">
        <ele>862</ele>
        <time>2020-09-26T11:55:12+02:00</time>
      </trkpt>
      <trkpt lat="43.94976" lon="6.24869">
        <ele>861</ele>
        <time>2020-09-26T11:55:12+02:00</time>
      </trkpt>
      <trkpt lat="43.94972" lon="6.24857">
        <ele>863</ele>
        <time>2020-09-26T11:55:12+02:00</time>
      </trkpt>
      <trkpt lat="43.94966" lon="6.24846">
        <ele>864</ele>
        <time>2020-09-26T11:55:12+02:00</time>
      </trkpt>
      <trkpt lat="43.94958" lon="6.2484">
        <ele>864</ele>
        <time>2020-09-26T11:55:12+02:00</time>
      </trkpt>
      <trkpt lat="43.94949" lon="6.24842">
        <ele>865</ele>
        <time>2020-09-26T11:55:12+02:00</time>
      </trkpt>
      <trkpt lat="43.94941" lon="6.24832">
        <ele>866</ele>
        <time>2020-09-26T11:55:12+02:00</time>
      </trkpt>
      <trkpt lat="43.94933" lon="6.24826">
        <ele>867</ele>
        <time>2020-09-26T11:55:12+02:00</time>
      </trkpt>
      <trkpt lat="43.94924" lon="6.24822">
        <ele>867</ele>
        <time>2020-09-26T11:55:12+02:00</time>
      </trkpt>
      <trkpt lat="43.94917" lon="6.24815">
        <ele>865</ele>
        <time>2020-09-26T11:55:12+02:00</time>
      </trkpt>
      <trkpt lat="43.94909" lon="6.24805">
        <ele>862</ele>
        <time>2020-09-26T11:55:12+02:00</time>
      </trkpt>
      <trkpt lat="43.94904" lon="6.24794">
        <ele>863</ele>
        <time>2020-09-26T11:55:12+02:00</time>
      </trkpt>
      <trkpt lat="43.94903" lon="6.24781">
        <ele>863</ele>
        <time>2020-09-26T11:55:12+02:00</time>
      </trkpt>
      <trkpt lat="43.94898" lon="6.24768">
        <ele>863</ele>
        <time>2020-09-26T11:57:20+02:00</time>
      </trkpt>
      <trkpt lat="43.94893" lon="6.24757">
        <ele>862</ele>
        <time>2020-09-26T11:57:20+02:00</time>
      </trkpt>
      <trkpt lat="43.94887" lon="6.24747">
        <ele>860</ele>
        <time>2020-09-26T11:57:20+02:00</time>
      </trkpt>
      <trkpt lat="43.94879" lon="6.24741">
        <ele>861</ele>
        <time>2020-09-26T11:57:20+02:00</time>
      </trkpt>
      <trkpt lat="43.9487" lon="6.24736">
        <ele>861</ele>
        <time>2020-09-26T11:57:20+02:00</time>
      </trkpt>
      <trkpt lat="43.94862" lon="6.24729">
        <ele>862</ele>
        <time>2020-09-26T11:57:20+02:00</time>
      </trkpt>
      <trkpt lat="43.94852" lon="6.24728">
        <ele>862</ele>
        <time>2020-09-26T11:57:20+02:00</time>
      </trkpt>
      <trkpt lat="43.94843" lon="6.24724">
        <ele>862</ele>
        <time>2020-09-26T11:57:20+02:00</time>
      </trkpt>
      <trkpt lat="43.94835" lon="6.24717">
        <ele>860</ele>
        <time>2020-09-26T11:57:20+02:00</time>
      </trkpt>
      <trkpt lat="43.94828" lon="6.24707">
        <ele>858</ele>
        <time>2020-09-26T11:57:20+02:00</time>
      </trkpt>
      <trkpt lat="43.94822" lon="6.24696">
        <ele>859</ele>
        <time>2020-09-26T11:57:20+02:00</time>
      </trkpt>
      <trkpt lat="43.94813" lon="6.24689">
        <ele>858</ele>
        <time>2020-09-26T11:57:20+02:00</time>
      </trkpt>
      <trkpt lat="43.94807" lon="6.24679">
        <ele>859</ele>
        <time>2020-09-26T11:57:20+02:00</time>
      </trkpt>
      <trkpt lat="43.94803" lon="6.24665">
        <ele>858</ele>
        <time>2020-09-26T11:57:20+02:00</time>
      </trkpt>
      <trkpt lat="43.94798" lon="6.24653">
        <ele>856</ele>
        <time>2020-09-26T11:57:20+02:00</time>
      </trkpt>
      <trkpt lat="43.94792" lon="6.24642">
        <ele>856</ele>
        <time>2020-09-26T11:59:28+02:00</time>
      </trkpt>
      <trkpt lat="43.94784" lon="6.24634">
        <ele>857</ele>
        <time>2020-09-26T11:59:28+02:00</time>
      </trkpt>
      <trkpt lat="43.94776" lon="6.24629">
        <ele>856</ele>
        <time>2020-09-26T11:59:28+02:00</time>
      </trkpt>
      <trkpt lat="43.94768" lon="6.24621">
        <ele>857</ele>
        <time>2020-09-26T11:59:28+02:00</time>
      </trkpt>
      <trkpt lat="43.94762" lon="6.24612">
        <ele>855</ele>
        <time>2020-09-26T11:59:28+02:00</time>
      </trkpt>
      <trkpt lat="43.94754" lon="6.24605">
        <ele>856</ele>
        <time>2020-09-26T11:59:28+02:00</time>
      </trkpt>
      <trkpt lat="43.94744" lon="6.24602">
        <ele>858</ele>
        <time>2020-09-26T11:59:28+02:00</time>
      </trkpt>
      <trkpt lat="43.94736" lon="6.24596">
        <ele>858</ele>
        <time>2020-09-26T11:59:28+02:00</time>
      </trkpt>
      <trkpt lat="43.94727" lon="6.24588">
        <ele>861</ele>
        <time>2020-09-26T11:59:28+02:00</time>
      </trkpt>
      <trkpt lat="43.94724" lon="6.24576">
        <ele>862</ele>
        <time>2020-09-26T11:59:28+02:00</time>
      </trkpt>
      <trkpt lat="43.94716" lon="6.24568">
        <ele>863</ele>
        <time>2020-09-26T11:59:28+02:00</time>
      </trkpt>
      <trkpt lat="43.94709" lon="6.2456">
        <ele>865</ele>
        <time>2020-09-26T11:59:28+02:00</time>
      </trkpt>
      <trkpt lat="43.94701" lon="6.24554">
        <ele>864</ele>
        <time>2020-09-26T11:59:28+02:00</time>
      </trkpt>
      <trkpt lat="43.94695" lon="6.24544">
        <ele>864</ele>
        <time>2020-09-26T11:59:28+02:00</time>
      </trkpt>
      <trkpt lat="43.94694" lon="6.2453">
        <ele>867</ele>
        <time>2020-09-26T12:01:36+02:00</time>
      </trkpt>
      <trkpt lat="43.94687" lon="6.24521">
        <ele>870</ele>
        <time>2020-09-26T12:01:36+02:00</time>
      </trkpt>
      <trkpt lat="43.94682" lon="6.24509">
        <ele>869</ele>
        <time>2020-09-26T12:01:36+02:00</time>
      </trkpt>
      <trkpt lat="43.94677" lon="6.24497">
        <ele>868</ele>
        <time>2020-09-26T12:01:36+02:00</time>
      </trkpt>
      <trkpt lat="43.9467" lon="6.24487">
        <ele>870</ele>
        <time>2020-09-26T12:01:36+02:00</time>
      </trkpt>
      <trkpt lat="43.94663" lon="6.24478">
        <ele>869</ele>
        <time>2020-09-26T12:01:36+02:00</time>
      </trkpt>
      <trkpt lat="43.94658" lon="6.24468">
        <ele>869</ele>
        <time>2020-09-26T12:01:36+02:00</time>
      </trkpt>
      <trkpt lat="43.94653" lon="6.24457">
        <ele>870</ele>
        <time>2020-09-26T12:01:36+02:00</time>
      </trkpt>
      <trkpt lat="43.94648" lon="6.24446">
        <ele>870</ele>
        <time>2020-09-26T12:01:36+02:00</time>
      </trkpt>
      <trkpt lat="43.94641" lon="6.24436">
        <ele>871</ele>
        <time>2020-09-26T12:01:36+02:00</time>
      </trkpt>
      <trkpt lat="43.94634" lon="6.24427">
        <ele>872</ele>
        <time>2020-09-26T12:01:36+02:00</time>
      </trkpt>
      <trkpt lat="43.94627" lon="6.24417">
        <ele>873</ele>
        <time>2020-09-26T12:01:36+02:00</time>
      </trkpt>
      <trkpt lat="43.94624" lon="6.24404">
        <ele>873</ele>
        <time>2020-09-26T12:01:36+02:00</time>
      </trkpt>
      <trkpt lat="43.94619" lon="6.24393">
        <ele>870</ele>
        <time>2020-09-26T12:03:44+02:00</time>
      </trkpt>
      <trkpt lat="43.94612" lon="6.24384">
        <ele>870</ele>
        <time>2020-09-26T12:03:44+02:00</time>
      </trkpt>
      <trkpt lat="43.94604" lon="6.24378">
        <ele>870</ele>
        <time>2020-09-26T12:03:44+02:00</time>
      </trkpt>
      <trkpt lat="43.94601" lon="6.24364">
        <ele>872</ele>
        <time>2020-09-26T12:03:44+02:00</time>
      </trkpt>
      <trkpt lat="43.94599" lon="6.24351">
        <ele>872</ele>
        <time>2020-09-26T12:03:44+02:00</time>
      </trkpt>
      <trkpt lat="43.94602" lon="6.24338">
        <ele>872</ele>
        <time>2020-09-26T12:03:44+02:00</time>
      </trkpt>
      <trkpt lat="43.946" lon="6.24326">
        <ele>871</ele>
        <time>2020-09-26T12:03:44+02:00</time>
      </trkpt>
      <trkpt lat="43.94596" lon="6.24314">
        <ele>870</ele>
        <time>2020-09-26T12:03:44+02:00</time>
      </trkpt>
      <trkpt lat="43.94596" lon="6.24301">
        <ele>867</ele>
        <time>2020-09-26T12:03:44+02:00</time>
      </trkpt>
      <trkpt lat="43.94597" lon="6.24287">
        <ele>867</ele>
        <time>2020-09-26T12:03:44+02:00</time>
      </trkpt>
      <trkpt lat="43.94593" lon="6.24275">
        <ele>865</ele>
        <time>2020-09-26T12:03:44+02:00</time>
      </trkpt>
      <trkpt lat="43.94592" lon="6.24262">
        <ele>865</ele>
        <time>2020-09-26T12:03:44+02:00</time>
      </trkpt>
      <trkpt lat="43.94585" lon="6.24255">
        <ele>863</ele>
        <time>2020-09-26T12:03:44+02:00</time>
      </trkpt>
      <trkpt lat="43.94579" lon="6.24245">
        <ele>863</ele>
        <time>2020-09-26T12:05:52+02:00</time>
      </trkpt>
      <trkpt lat="43.94572" lon="6.24235">
        <ele>863</ele>
        <time>2020-09-26T12:05:52+02:00</time>
      </trkpt>
      <trkpt lat="43.94569" lon="6.24222">
        <ele>863</ele>
        <time>2020-09-26T12:05:52+02:00</time>
      </trkpt>
      <trkpt lat="43.94565" lon="6.24207">
        <ele>863</ele>
        <time>2020-09-26T12:05:52+02:00</time>
      </trkpt>
      <trkpt lat="43.94564" lon="6.24194">
        <ele>863</ele>
        <time>2020-09-26T12:05:52+02:00</time>
      </trkpt>
      <trkpt lat="43.9456" lon="6.24181">
        <ele>862</ele>
        <time>2020-09-26T12:05:52+02:00</time>
      </trkpt>
      <trkpt lat="43.94559" lon="6.24167">
        <ele>862</ele>
        <time>2020-09-26T12:05:52+02:00</time>
      </trkpt>
      <trkpt lat="43.94562" lon="6.24154">
        <ele>861</ele>
        <time>2020-09-26T12:05:52+02:00</time>
      </trkpt>
      <trkpt lat="43.94562" lon="6.2414">
        <ele>862</ele>
        <time>2020-09-26T12:05:52+02:00</time>
      </trkpt>
      <trkpt lat="43.94555" lon="6.24132">
        <ele>858</ele>
        <time>2020-09-26T12:05:52+02:00</time>
      </trkpt>
      <trkpt lat="43.94546" lon="6.24132">
        <ele>853</ele>
        <time>2020-09-26T12:05:52+02:00</time>
      </trkpt>
      <trkpt lat="43.94537" lon="6.24126">
        <ele>856</ele>
        <time>2020-09-26T12:08:00+02:00</time>
      </trkpt>
      <trkpt lat="43.94539" lon="6.24113">
        <ele>857</ele>
        <time>2020-09-26T12:10:08+02:00</time>
      </trkpt>
      <trkpt lat="43.94537" lon="6.241">
        <ele>864</ele>
        <time>2020-09-26T12:10:08+02:00</time>
      </trkpt>
      <trkpt lat="43.94539" lon="6.24088">
        <ele>865</ele>
        <time>2020-09-26T12:14:24+02:00</time>
      </trkpt>
      <trkpt lat="43.94537" lon="6.24101">
        <ele>861</ele>
        <time>2020-09-26T12:16:32+02:00</time>
      </trkpt>
      <trkpt lat="43.94527" lon="6.241">
        <ele>870</ele>
        <time>2020-09-26T12:18:40+02:00</time>
      </trkpt>
      <trkpt lat="43.9452" lon="6.24107">
        <ele>870</ele>
        <time>2020-09-26T12:18:40+02:00</time>
      </trkpt>
      <trkpt lat="43.94512" lon="6.24115">
        <ele>873</ele>
        <time>2020-09-26T12:18:40+02:00</time>
      </trkpt>
      <trkpt lat="43.94505" lon="6.24124">
        <ele>872</ele>
        <time>2020-09-26T12:18:40+02:00</time>
      </trkpt>
      <trkpt lat="43.94497" lon="6.24132">
        <ele>866</ele>
        <time>2020-09-26T12:18:40+02:00</time>
      </trkpt>
      <trkpt lat="43.94489" lon="6.24141">
        <ele>865</ele>
        <time>2020-09-26T12:18:40+02:00</time>
      </trkpt>
      <trkpt lat="43.94481" lon="6.24147">
        <ele>863</ele>
        <time>2020-09-26T12:18:40+02:00</time>
      </trkpt>
      <trkpt lat="43.94472" lon="6.24148">
        <ele>861</ele>
        <time>2020-09-26T12:18:40+02:00</time>
      </trkpt>
      <trkpt lat="43.94465" lon="6.24157">
        <ele>861</ele>
        <time>2020-09-26T12:18:40+02:00</time>
      </trkpt>
      <trkpt lat="43.94458" lon="6.24166">
        <ele>861</ele>
        <time>2020-09-26T12:18:40+02:00</time>
      </trkpt>
      <trkpt lat="43.94449" lon="6.2417">
        <ele>859</ele>
        <time>2020-09-26T12:18:40+02:00</time>
      </trkpt>
      <trkpt lat="43.9444" lon="6.24174">
        <ele>857</ele>
        <time>2020-09-26T12:18:40+02:00</time>
      </trkpt>
      <trkpt lat="43.9443" lon="6.24176">
        <ele>854</ele>
        <time>2020-09-26T12:18:40+02:00</time>
      </trkpt>
      <trkpt lat="43.9442" lon="6.24176">
        <ele>848</ele>
        <time>2020-09-26T12:18:40+02:00</time>
      </trkpt>
      <trkpt lat="43.9441" lon="6.24176">
        <ele>845</ele>
        <time>2020-09-26T12:18:40+02:00</time>
      </trkpt>
      <trkpt lat="43.94401" lon="6.2418">
        <ele>838</ele>
        <time>2020-09-26T12:20:48+02:00</time>
      </trkpt>
      <trkpt lat="43.94392" lon="6.2418">
        <ele>837</ele>
        <time>2020-09-26T12:20:48+02:00</time>
      </trkpt>
      <trkpt lat="43.94383" lon="6.24184">
        <ele>836</ele>
        <time>2020-09-26T12:20:48+02:00</time>
      </trkpt>
      <trkpt lat="43.94373" lon="6.24182">
        <ele>833</ele>
        <time>2020-09-26T12:20:48+02:00</time>
      </trkpt>
      <trkpt lat="43.94364" lon="6.24184">
        <ele>829</ele>
        <time>2020-09-26T12:20:48+02:00</time>
      </trkpt>
      <trkpt lat="43.94354" lon="6.24183">
        <ele>825</ele>
        <time>2020-09-26T12:20:48+02:00</time>
      </trkpt>
      <trkpt lat="43.94345" lon="6.24182">
        <ele>823</ele>
        <time>2020-09-26T12:20:48+02:00</time>
      </trkpt>
      <trkpt lat="43.94335" lon="6.24183">
        <ele>820</ele>
        <time>2020-09-26T12:20:48+02:00</time>
      </trkpt>
      <trkpt lat="43.94327" lon="6.24176">
        <ele>815</ele>
        <time>2020-09-26T12:20:48+02:00</time>
      </trkpt>
      <trkpt lat="43.94318" lon="6.24171">
        <ele>809</ele>
        <time>2020-09-26T12:20:48+02:00</time>
      </trkpt>
      <trkpt lat="43.94309" lon="6.24169">
        <ele>805</ele>
        <time>2020-09-26T12:20:48+02:00</time>
      </trkpt>
      <trkpt lat="43.94299" lon="6.24167">
        <ele>802</ele>
        <time>2020-09-26T12:20:48+02:00</time>
      </trkpt>
      <trkpt lat="43.94289" lon="6.24167">
        <ele>799</ele>
        <time>2020-09-26T12:22:56+02:00</time>
      </trkpt>
      <trkpt lat="43.9428" lon="6.2416">
        <ele>795</ele>
        <time>2020-09-26T12:22:56+02:00</time>
      </trkpt>
      <trkpt lat="43.94272" lon="6.24154">
        <ele>793</ele>
        <time>2020-09-26T12:22:56+02:00</time>
      </trkpt>
      <trkpt lat="43.94262" lon="6.24152">
        <ele>788</ele>
        <time>2020-09-26T12:22:56+02:00</time>
      </trkpt>
      <trkpt lat="43.94253" lon="6.24152">
        <ele>786</ele>
        <time>2020-09-26T12:22:56+02:00</time>
      </trkpt>
      <trkpt lat="43.94245" lon="6.24145">
        <ele>782</ele>
        <time>2020-09-26T12:22:56+02:00</time>
      </trkpt>
      <trkpt lat="43.94236" lon="6.24141">
        <ele>780</ele>
        <time>2020-09-26T12:22:56+02:00</time>
      </trkpt>
      <trkpt lat="43.94227" lon="6.24135">
        <ele>777</ele>
        <time>2020-09-26T12:22:56+02:00</time>
      </trkpt>
      <trkpt lat="43.94218" lon="6.24131">
        <ele>773</ele>
        <time>2020-09-26T12:22:56+02:00</time>
      </trkpt>
      <trkpt lat="43.9421" lon="6.24126">
        <ele>771</ele>
        <time>2020-09-26T12:22:56+02:00</time>
      </trkpt>
      <trkpt lat="43.94201" lon="6.24121">
        <ele>768</ele>
        <time>2020-09-26T12:22:56+02:00</time>
      </trkpt>
      <trkpt lat="43.94194" lon="6.24114">
        <ele>765</ele>
        <time>2020-09-26T12:22:56+02:00</time>
      </trkpt>
      <trkpt lat="43.94185" lon="6.24111">
        <ele>762</ele>
        <time>2020-09-26T12:22:56+02:00</time>
      </trkpt>
      <trkpt lat="43.94175" lon="6.2411">
        <ele>761</ele>
        <time>2020-09-26T12:25:04+02:00</time>
      </trkpt>
      <trkpt lat="43.94166" lon="6.24115">
        <ele>760</ele>
        <time>2020-09-26T12:25:04+02:00</time>
      </trkpt>
      <trkpt lat="43.94161" lon="6.24127">
        <ele>765</ele>
        <time>2020-09-26T12:25:04+02:00</time>
      </trkpt>
      <trkpt lat="43.94152" lon="6.24132">
        <ele>766</ele>
        <time>2020-09-26T12:25:04+02:00</time>
      </trkpt>
      <trkpt lat="43.94146" lon="6.24141">
        <ele>770</ele>
        <time>2020-09-26T12:25:04+02:00</time>
      </trkpt>
      <trkpt lat="43.94138" lon="6.24147">
        <ele>775</ele>
        <time>2020-09-26T12:25:04+02:00</time>
      </trkpt>
      <trkpt lat="43.94131" lon="6.24157">
        <ele>778</ele>
        <time>2020-09-26T12:25:04+02:00</time>
      </trkpt>
      <trkpt lat="43.94124" lon="6.24165">
        <ele>780</ele>
        <time>2020-09-26T12:25:04+02:00</time>
      </trkpt>
      <trkpt lat="43.94118" lon="6.24175">
        <ele>781</ele>
        <time>2020-09-26T12:25:04+02:00</time>
      </trkpt>
      <trkpt lat="43.94111" lon="6.24185">
        <ele>783</ele>
        <time>2020-09-26T12:25:04+02:00</time>
      </trkpt>
      <trkpt lat="43.94103" lon="6.24191">
        <ele>784</ele>
        <time>2020-09-26T12:25:04+02:00</time>
      </trkpt>
      <trkpt lat="43.94095" lon="6.242">
        <ele>785</ele>
        <time>2020-09-26T12:25:04+02:00</time>
      </trkpt>
      <trkpt lat="43.94089" lon="6.24211">
        <ele>785</ele>
        <time>2020-09-26T12:25:04+02:00</time>
      </trkpt>
      <trkpt lat="43.9408" lon="6.24214">
        <ele>790</ele>
        <time>2020-09-26T12:25:04+02:00</time>
      </trkpt>
      <trkpt lat="43.94072" lon="6.24207">
        <ele>789</ele>
        <time>2020-09-26T12:27:12+02:00</time>
      </trkpt>
      <trkpt lat="43.94064" lon="6.24198">
        <ele>788</ele>
        <time>2020-09-26T12:27:12+02:00</time>
      </trkpt>
      <trkpt lat="43.94056" lon="6.24206">
        <ele>793</ele>
        <time>2020-09-26T12:27:12+02:00</time>
      </trkpt>
      <trkpt lat="43.94054" lon="6.24219">
        <ele>795</ele>
        <time>2020-09-26T12:27:12+02:00</time>
      </trkpt>
      <trkpt lat="43.94051" lon="6.24232">
        <ele>797</ele>
        <time>2020-09-26T12:27:12+02:00</time>
      </trkpt>
      <trkpt lat="43.94046" lon="6.24244">
        <ele>801</ele>
        <time>2020-09-26T12:27:12+02:00</time>
      </trkpt>
      <trkpt lat="43.94038" lon="6.24251">
        <ele>801</ele>
        <time>2020-09-26T12:27:12+02:00</time>
      </trkpt>
      <trkpt lat="43.94033" lon="6.24264">
        <ele>802</ele>
        <time>2020-09-26T12:27:12+02:00</time>
      </trkpt>
      <trkpt lat="43.94026" lon="6.24274">
        <ele>803</ele>
        <time>2020-09-26T12:27:12+02:00</time>
      </trkpt>
      <trkpt lat="43.94019" lon="6.24282">
        <ele>803</ele>
        <time>2020-09-26T12:27:12+02:00</time>
      </trkpt>
      <trkpt lat="43.94012" lon="6.2429">
        <ele>801</ele>
        <time>2020-09-26T12:27:12+02:00</time>
      </trkpt>
      <trkpt lat="43.94003" lon="6.24294">
        <ele>798</ele>
        <time>2020-09-26T12:27:12+02:00</time>
      </trkpt>
      <trkpt lat="43.93994" lon="6.24294">
        <ele>794</ele>
        <time>2020-09-26T12:27:12+02:00</time>
      </trkpt>
      <trkpt lat="43.93984" lon="6.24298">
        <ele>792</ele>
        <time>2020-09-26T12:27:12+02:00</time>
      </trkpt>
      <trkpt lat="43.93975" lon="6.24297">
        <ele>791</ele>
        <time>2020-09-26T12:29:20+02:00</time>
      </trkpt>
      <trkpt lat="43.93966" lon="6.24291">
        <ele>790</ele>
        <time>2020-09-26T12:29:20+02:00</time>
      </trkpt>
      <trkpt lat="43.93957" lon="6.24295">
        <ele>790</ele>
        <time>2020-09-26T12:29:20+02:00</time>
      </trkpt>
      <trkpt lat="43.93951" lon="6.24305">
        <ele>791</ele>
        <time>2020-09-26T12:29:20+02:00</time>
      </trkpt>
      <trkpt lat="43.93942" lon="6.24311">
        <ele>792</ele>
        <time>2020-09-26T12:29:20+02:00</time>
      </trkpt>
      <trkpt lat="43.93935" lon="6.2432">
        <ele>790</ele>
        <time>2020-09-26T12:29:20+02:00</time>
      </trkpt>
      <trkpt lat="43.93927" lon="6.24326">
        <ele>788</ele>
        <time>2020-09-26T12:29:20+02:00</time>
      </trkpt>
      <trkpt lat="43.9392" lon="6.24335">
        <ele>788</ele>
        <time>2020-09-26T12:29:20+02:00</time>
      </trkpt>
      <trkpt lat="43.93912" lon="6.24344">
        <ele>789</ele>
        <time>2020-09-26T12:29:20+02:00</time>
      </trkpt>
      <trkpt lat="43.93903" lon="6.24352">
        <ele>790</ele>
        <time>2020-09-26T12:29:20+02:00</time>
      </trkpt>
      <trkpt lat="43.93896" lon="6.24361">
        <ele>792</ele>
        <time>2020-09-26T12:29:20+02:00</time>
      </trkpt>
      <trkpt lat="43.9389" lon="6.24372">
        <ele>791</ele>
        <time>2020-09-26T12:29:20+02:00</time>
      </trkpt>
      <trkpt lat="43.93883" lon="6.2438">
        <ele>791</ele>
        <time>2020-09-26T12:29:20+02:00</time>
      </trkpt>
      <trkpt lat="43.93876" lon="6.24389">
        <ele>791</ele>
        <time>2020-09-26T12:29:20+02:00</time>
      </trkpt>
      <trkpt lat="43.93869" lon="6.24398">
        <ele>792</ele>
        <time>2020-09-26T12:29:20+02:00</time>
      </trkpt>
      <trkpt lat="43.93861" lon="6.24404">
        <ele>790</ele>
        <time>2020-09-26T12:31:28+02:00</time>
      </trkpt>
      <trkpt lat="43.93854" lon="6.24414">
        <ele>792</ele>
        <time>2020-09-26T12:31:28+02:00</time>
      </trkpt>
      <trkpt lat="43.93845" lon="6.24418">
        <ele>790</ele>
        <time>2020-09-26T12:31:28+02:00</time>
      </trkpt>
      <trkpt lat="43.93836" lon="6.24424">
        <ele>790</ele>
        <time>2020-09-26T12:31:28+02:00</time>
      </trkpt>
      <trkpt lat="43.93828" lon="6.24431">
        <ele>790</ele>
        <time>2020-09-26T12:31:28+02:00</time>
      </trkpt>
      <trkpt lat="43.93819" lon="6.24436">
        <ele>790</ele>
        <time>2020-09-26T12:31:28+02:00</time>
      </trkpt>
      <trkpt lat="43.9381" lon="6.24437">
        <ele>788</ele>
        <time>2020-09-26T12:31:28+02:00</time>
      </trkpt>
      <trkpt lat="43.93801" lon="6.24443">
        <ele>789</ele>
        <time>2020-09-26T12:31:28+02:00</time>
      </trkpt>
      <trkpt lat="43.93793" lon="6.24447">
        <ele>788</ele>
        <time>2020-09-26T12:31:28+02:00</time>
      </trkpt>
      <trkpt lat="43.93784" lon="6.24452">
        <ele>787</ele>
        <time>2020-09-26T12:31:28+02:00</time>
      </trkpt>
      <trkpt lat="43.93774" lon="6.24452">
        <ele>786</ele>
        <time>2020-09-26T12:31:28+02:00</time>
      </trkpt>
      <trkpt lat="43.93765" lon="6.24445">
        <ele>782</ele>
        <time>2020-09-26T12:31:28+02:00</time>
      </trkpt>
      <trkpt lat="43.93755" lon="6.24447">
        <ele>779</ele>
        <time>2020-09-26T12:31:28+02:00</time>
      </trkpt>
      <trkpt lat="43.93747" lon="6.24452">
        <ele>779</ele>
        <time>2020-09-26T12:31:28+02:00</time>
      </trkpt>
      <trkpt lat="43.93739" lon="6.24459">
        <ele>779</ele>
        <time>2020-09-26T12:31:28+02:00</time>
      </trkpt>
      <trkpt lat="43.9373" lon="6.24463">
        <ele>780</ele>
        <time>2020-09-26T12:31:28+02:00</time>
      </trkpt>
      <trkpt lat="43.93721" lon="6.24465">
        <ele>779</ele>
        <time>2020-09-26T12:33:36+02:00</time>
      </trkpt>
      <trkpt lat="43.93711" lon="6.24472">
        <ele>779</ele>
        <time>2020-09-26T12:33:36+02:00</time>
      </trkpt>
      <trkpt lat="43.93702" lon="6.24479">
        <ele>779</ele>
        <time>2020-09-26T12:33:36+02:00</time>
      </trkpt>
      <trkpt lat="43.93697" lon="6.24491">
        <ele>780</ele>
        <time>2020-09-26T12:33:36+02:00</time>
      </trkpt>
      <trkpt lat="43.93692" lon="6.24504">
        <ele>780</ele>
        <time>2020-09-26T12:33:36+02:00</time>
      </trkpt>
      <trkpt lat="43.93685" lon="6.24514">
        <ele>779</ele>
        <time>2020-09-26T12:33:36+02:00</time>
      </trkpt>
      <trkpt lat="43.93681" lon="6.24525">
        <ele>779</ele>
        <time>2020-09-26T12:33:36+02:00</time>
      </trkpt>
      <trkpt lat="43.93672" lon="6.24531">
        <ele>778</ele>
        <time>2020-09-26T12:33:36+02:00</time>
      </trkpt>
      <trkpt lat="43.93664" lon="6.24539">
        <ele>778</ele>
        <time>2020-09-26T12:33:36+02:00</time>
      </trkpt>
      <trkpt lat="43.93657" lon="6.24549">
        <ele>778</ele>
        <time>2020-09-26T12:33:36+02:00</time>
      </trkpt>
      <trkpt lat="43.93649" lon="6.24558">
        <ele>777</ele>
        <time>2020-09-26T12:33:36+02:00</time>
      </trkpt>
      <trkpt lat="43.93642" lon="6.24567">
        <ele>777</ele>
        <time>2020-09-26T12:33:36+02:00</time>
      </trkpt>
      <trkpt lat="43.93636" lon="6.24576">
        <ele>773</ele>
        <time>2020-09-26T12:33:36+02:00</time>
      </trkpt>
      <trkpt lat="43.93626" lon="6.24572">
        <ele>770</ele>
        <time>2020-09-26T12:35:44+02:00</time>
      </trkpt>
      <trkpt lat="43.93616" lon="6.24572">
        <ele>770</ele>
        <time>2020-09-26T12:35:44+02:00</time>
      </trkpt>
      <trkpt lat="43.93608" lon="6.2458">
        <ele>769</ele>
        <time>2020-09-26T12:35:44+02:00</time>
      </trkpt>
      <trkpt lat="43.93598" lon="6.24579">
        <ele>769</ele>
        <time>2020-09-26T12:35:44+02:00</time>
      </trkpt>
      <trkpt lat="43.93589" lon="6.24578">
        <ele>767</ele>
        <time>2020-09-26T12:35:44+02:00</time>
      </trkpt>
      <trkpt lat="43.93579" lon="6.2458">
        <ele>766</ele>
        <time>2020-09-26T12:35:44+02:00</time>
      </trkpt>
      <trkpt lat="43.9357" lon="6.24577">
        <ele>765</ele>
        <time>2020-09-26T12:35:44+02:00</time>
      </trkpt>
      <trkpt lat="43.93561" lon="6.24574">
        <ele>764</ele>
        <time>2020-09-26T12:35:44+02:00</time>
      </trkpt>
      <trkpt lat="43.93552" lon="6.24567">
        <ele>761</ele>
        <time>2020-09-26T12:35:44+02:00</time>
      </trkpt>
      <trkpt lat="43.93542" lon="6.24564">
        <ele>759</ele>
        <time>2020-09-26T12:35:44+02:00</time>
      </trkpt>
      <trkpt lat="43.93534" lon="6.24556">
        <ele>758</ele>
        <time>2020-09-26T12:35:44+02:00</time>
      </trkpt>
      <trkpt lat="43.93528" lon="6.24544">
        <ele>755</ele>
        <time>2020-09-26T12:35:44+02:00</time>
      </trkpt>
      <trkpt lat="43.93519" lon="6.24542">
        <ele>752</ele>
        <time>2020-09-26T12:35:44+02:00</time>
      </trkpt>
      <trkpt lat="43.93509" lon="6.24542">
        <ele>749</ele>
        <time>2020-09-26T12:35:44+02:00</time>
      </trkpt>
      <trkpt lat="43.93499" lon="6.24542">
        <ele>748</ele>
        <time>2020-09-26T12:35:44+02:00</time>
      </trkpt>
      <trkpt lat="43.93491" lon="6.24549">
        <ele>748</ele>
        <time>2020-09-26T12:35:44+02:00</time>
      </trkpt>
      <trkpt lat="43.93481" lon="6.24554">
        <ele>748</ele>
        <time>2020-09-26T12:35:44+02:00</time>
      </trkpt>
      <trkpt lat="43.93471" lon="6.24557">
        <ele>748</ele>
        <time>2020-09-26T12:37:52+02:00</time>
      </trkpt>
      <trkpt lat="43.93461" lon="6.24561">
        <ele>748</ele>
        <time>2020-09-26T12:37:52+02:00</time>
      </trkpt>
      <trkpt lat="43.93452" lon="6.24569">
        <ele>746</ele>
        <time>2020-09-26T12:37:52+02:00</time>
      </trkpt>
      <trkpt lat="43.93443" lon="6.24575">
        <ele>745</ele>
        <time>2020-09-26T12:37:52+02:00</time>
      </trkpt>
      <trkpt lat="43.93435" lon="6.24579">
        <ele>745</ele>
        <time>2020-09-26T12:37:52+02:00</time>
      </trkpt>
      <trkpt lat="43.93425" lon="6.24577">
        <ele>742</ele>
        <time>2020-09-26T12:37:52+02:00</time>
      </trkpt>
      <trkpt lat="43.93416" lon="6.24582">
        <ele>741</ele>
        <time>2020-09-26T12:37:52+02:00</time>
      </trkpt>
      <trkpt lat="43.93409" lon="6.24591">
        <ele>740</ele>
        <time>2020-09-26T12:37:52+02:00</time>
      </trkpt>
      <trkpt lat="43.93402" lon="6.246">
        <ele>739</ele>
        <time>2020-09-26T12:37:52+02:00</time>
      </trkpt>
      <trkpt lat="43.93394" lon="6.24609">
        <ele>737</ele>
        <time>2020-09-26T12:37:52+02:00</time>
      </trkpt>
      <trkpt lat="43.93385" lon="6.24611">
        <ele>734</ele>
        <time>2020-09-26T12:37:52+02:00</time>
      </trkpt>
      <trkpt lat="43.93384" lon="6.24597">
        <ele>735</ele>
        <time>2020-09-26T12:37:52+02:00</time>
      </trkpt>
      <trkpt lat="43.93386" lon="6.24584">
        <ele>734</ele>
        <time>2020-09-26T12:37:52+02:00</time>
      </trkpt>
      <trkpt lat="43.93389" lon="6.2457">
        <ele>733</ele>
        <time>2020-09-26T12:37:52+02:00</time>
      </trkpt>
      <trkpt lat="43.93394" lon="6.24559">
        <ele>732</ele>
        <time>2020-09-26T12:37:52+02:00</time>
      </trkpt>
      <trkpt lat="43.93401" lon="6.24551">
        <ele>731</ele>
        <time>2020-09-26T12:40:00+02:00</time>
      </trkpt>
      <trkpt lat="43.93393" lon="6.24542">
        <ele>730</ele>
        <time>2020-09-26T12:40:00+02:00</time>
      </trkpt>
      <trkpt lat="43.93384" lon="6.2454">
        <ele>731</ele>
        <time>2020-09-26T12:40:00+02:00</time>
      </trkpt>
      <trkpt lat="43.93375" lon="6.24535">
        <ele>763</ele>
        <time>2020-09-26T12:42:08+02:00</time>
      </trkpt>
      <trkpt lat="43.93383" lon="6.24526">
        <ele>810</ele>
        <time>2020-09-26T12:46:24+02:00</time>
      </trkpt>
      <trkpt lat="43.93373" lon="6.2453">
        <ele>802</ele>
        <time>2020-09-26T12:52:48+02:00</time>
      </trkpt>
      <trkpt lat="43.93382" lon="6.24535">
        <ele>798</ele>
        <time>2020-09-26T12:52:48+02:00</time>
      </trkpt>
      <trkpt lat="43.93374" lon="6.24527">
        <ele>786</ele>
        <time>2020-09-26T13:37:36+02:00</time>
      </trkpt>
      <trkpt lat="43.93373" lon="6.24514">
        <ele>784</ele>
        <time>2020-09-26T13:37:36+02:00</time>
      </trkpt>
      <trkpt lat="43.93378" lon="6.24503">
        <ele>784</ele>
        <time>2020-09-26T13:37:36+02:00</time>
      </trkpt>
      <trkpt lat="43.93379" lon="6.2449">
        <ele>785</ele>
        <time>2020-09-26T13:39:44+02:00</time>
      </trkpt>
      <trkpt lat="43.93386" lon="6.24481">
        <ele>787</ele>
        <time>2020-09-26T13:39:44+02:00</time>
      </trkpt>
      <trkpt lat="43.93389" lon="6.24469">
        <ele>790</ele>
        <time>2020-09-26T13:39:44+02:00</time>
      </trkpt>
      <trkpt lat="43.93392" lon="6.24456">
        <ele>795</ele>
        <time>2020-09-26T13:39:44+02:00</time>
      </trkpt>
      <trkpt lat="43.93399" lon="6.24449">
        <ele>797</ele>
        <time>2020-09-26T13:39:44+02:00</time>
      </trkpt>
      <trkpt lat="43.93405" lon="6.24439">
        <ele>798</ele>
        <time>2020-09-26T13:39:44+02:00</time>
      </trkpt>
      <trkpt lat="43.93412" lon="6.24429">
        <ele>799</ele>
        <time>2020-09-26T13:39:44+02:00</time>
      </trkpt>
      <trkpt lat="43.93418" lon="6.24418">
        <ele>798</ele>
        <time>2020-09-26T13:39:44+02:00</time>
      </trkpt>
      <trkpt lat="43.93425" lon="6.2441">
        <ele>799</ele>
        <time>2020-09-26T13:39:44+02:00</time>
      </trkpt>
      <trkpt lat="43.93434" lon="6.24403">
        <ele>798</ele>
        <time>2020-09-26T13:41:52+02:00</time>
      </trkpt>
      <trkpt lat="43.93441" lon="6.24395">
        <ele>801</ele>
        <time>2020-09-26T13:41:52+02:00</time>
      </trkpt>
      <trkpt lat="43.93451" lon="6.24393">
        <ele>801</ele>
        <time>2020-09-26T13:41:52+02:00</time>
      </trkpt>
      <trkpt lat="43.93458" lon="6.24385">
        <ele>802</ele>
        <time>2020-09-26T13:41:52+02:00</time>
      </trkpt>
      <trkpt lat="43.93467" lon="6.24382">
        <ele>801</ele>
        <time>2020-09-26T13:41:52+02:00</time>
      </trkpt>
      <trkpt lat="43.93476" lon="6.24378">
        <ele>800</ele>
        <time>2020-09-26T13:41:52+02:00</time>
      </trkpt>
      <trkpt lat="43.93483" lon="6.24369">
        <ele>802</ele>
        <time>2020-09-26T13:41:52+02:00</time>
      </trkpt>
      <trkpt lat="43.9349" lon="6.24359">
        <ele>802</ele>
        <time>2020-09-26T13:41:52+02:00</time>
      </trkpt>
      <trkpt lat="43.93486" lon="6.24347">
        <ele>803</ele>
        <time>2020-09-26T13:41:52+02:00</time>
      </trkpt>
      <trkpt lat="43.93477" lon="6.24347">
        <ele>804</ele>
        <time>2020-09-26T13:41:52+02:00</time>
      </trkpt>
      <trkpt lat="43.93467" lon="6.24345">
        <ele>806</ele>
        <time>2020-09-26T13:41:52+02:00</time>
      </trkpt>
      <trkpt lat="43.93458" lon="6.24343">
        <ele>808</ele>
        <time>2020-09-26T13:44:00+02:00</time>
      </trkpt>
      <trkpt lat="43.93448" lon="6.24341">
        <ele>809</ele>
        <time>2020-09-26T13:44:00+02:00</time>
      </trkpt>
      <trkpt lat="43.9344" lon="6.24335">
        <ele>814</ele>
        <time>2020-09-26T13:44:00+02:00</time>
      </trkpt>
      <trkpt lat="43.93431" lon="6.24341">
        <ele>813</ele>
        <time>2020-09-26T13:44:00+02:00</time>
      </trkpt>
      <trkpt lat="43.93424" lon="6.24349">
        <ele>816</ele>
        <time>2020-09-26T13:44:00+02:00</time>
      </trkpt>
      <trkpt lat="43.93416" lon="6.24357">
        <ele>822</ele>
        <time>2020-09-26T13:44:00+02:00</time>
      </trkpt>
      <trkpt lat="43.93406" lon="6.24356">
        <ele>823</ele>
        <time>2020-09-26T13:44:00+02:00</time>
      </trkpt>
      <trkpt lat="43.93397" lon="6.24358">
        <ele>826</ele>
        <time>2020-09-26T13:44:00+02:00</time>
      </trkpt>
      <trkpt lat="43.93389" lon="6.24364">
        <ele>827</ele>
        <time>2020-09-26T13:44:00+02:00</time>
      </trkpt>
      <trkpt lat="43.93379" lon="6.2436">
        <ele>826</ele>
        <time>2020-09-26T13:44:00+02:00</time>
      </trkpt>
      <trkpt lat="43.9337" lon="6.24359">
        <ele>824</ele>
        <time>2020-09-26T13:46:08+02:00</time>
      </trkpt>
      <trkpt lat="43.93361" lon="6.24356">
        <ele>825</ele>
        <time>2020-09-26T13:46:08+02:00</time>
      </trkpt>
      <trkpt lat="43.93352" lon="6.24353">
        <ele>826</ele>
        <time>2020-09-26T13:46:08+02:00</time>
      </trkpt>
      <trkpt lat="43.93343" lon="6.24354">
        <ele>828</ele>
        <time>2020-09-26T13:46:08+02:00</time>
      </trkpt>
      <trkpt lat="43.93334" lon="6.24356">
        <ele>829</ele>
        <time>2020-09-26T13:46:08+02:00</time>
      </trkpt>
      <trkpt lat="43.93324" lon="6.24354">
        <ele>828</ele>
        <time>2020-09-26T13:46:08+02:00</time>
      </trkpt>
      <trkpt lat="43.93314" lon="6.24353">
        <ele>829</ele>
        <time>2020-09-26T13:46:08+02:00</time>
      </trkpt>
      <trkpt lat="43.93307" lon="6.24344">
        <ele>828</ele>
        <time>2020-09-26T13:46:08+02:00</time>
      </trkpt>
      <trkpt lat="43.93299" lon="6.24337">
        <ele>827</ele>
        <time>2020-09-26T13:46:08+02:00</time>
      </trkpt>
      <trkpt lat="43.93289" lon="6.24335">
        <ele>826</ele>
        <time>2020-09-26T13:46:08+02:00</time>
      </trkpt>
      <trkpt lat="43.93281" lon="6.2433">
        <ele>830</ele>
        <time>2020-09-26T13:46:08+02:00</time>
      </trkpt>
      <trkpt lat="43.93272" lon="6.24324">
        <ele>829</ele>
        <time>2020-09-26T13:46:08+02:00</time>
      </trkpt>
      <trkpt lat="43.93266" lon="6.24314">
        <ele>829</ele>
        <time>2020-09-26T13:48:16+02:00</time>
      </trkpt>
      <trkpt lat="43.93262" lon="6.24302">
        <ele>830</ele>
        <time>2020-09-26T13:48:16+02:00</time>
      </trkpt>
      <trkpt lat="43.93257" lon="6.24291">
        <ele>827</ele>
        <time>2020-09-26T13:48:16+02:00</time>
      </trkpt>
      <trkpt lat="43.93252" lon="6.2428">
        <ele>830</ele>
        <time>2020-09-26T13:48:16+02:00</time>
      </trkpt>
      <trkpt lat="43.93247" lon="6.24269">
        <ele>831</ele>
        <time>2020-09-26T13:48:16+02:00</time>
      </trkpt>
      <trkpt lat="43.9324" lon="6.2426">
        <ele>830</ele>
        <time>2020-09-26T13:48:16+02:00</time>
      </trkpt>
      <trkpt lat="43.93231" lon="6.24254">
        <ele>830</ele>
        <time>2020-09-26T13:48:16+02:00</time>
      </trkpt>
      <trkpt lat="43.93222" lon="6.24254">
        <ele>833</ele>
        <time>2020-09-26T13:48:16+02:00</time>
      </trkpt>
      <trkpt lat="43.93213" lon="6.24249">
        <ele>832</ele>
        <time>2020-09-26T13:48:16+02:00</time>
      </trkpt>
      <trkpt lat="43.93204" lon="6.24245">
        <ele>833</ele>
        <time>2020-09-26T13:48:16+02:00</time>
      </trkpt>
      <trkpt lat="43.93201" lon="6.24233">
        <ele>833</ele>
        <time>2020-09-26T13:48:16+02:00</time>
      </trkpt>
      <trkpt lat="43.93206" lon="6.24222">
        <ele>835</ele>
        <time>2020-09-26T13:48:16+02:00</time>
      </trkpt>
      <trkpt lat="43.93212" lon="6.24213">
        <ele>838</ele>
        <time>2020-09-26T13:50:24+02:00</time>
      </trkpt>
      <trkpt lat="43.93221" lon="6.24207">
        <ele>838</ele>
        <time>2020-09-26T13:50:24+02:00</time>
      </trkpt>
      <trkpt lat="43.93228" lon="6.242">
        <ele>841</ele>
        <time>2020-09-26T13:50:24+02:00</time>
      </trkpt>
      <trkpt lat="43.93237" lon="6.24194">
        <ele>845</ele>
        <time>2020-09-26T13:50:24+02:00</time>
      </trkpt>
      <trkpt lat="43.93246" lon="6.2419">
        <ele>850</ele>
        <time>2020-09-26T13:50:24+02:00</time>
      </trkpt>
      <trkpt lat="43.93255" lon="6.24193">
        <ele>851</ele>
        <time>2020-09-26T13:50:24+02:00</time>
      </trkpt>
      <trkpt lat="43.93264" lon="6.24196">
        <ele>851</ele>
        <time>2020-09-26T13:50:24+02:00</time>
      </trkpt>
      <trkpt lat="43.93273" lon="6.24198">
        <ele>849</ele>
        <time>2020-09-26T13:50:24+02:00</time>
      </trkpt>
      <trkpt lat="43.93283" lon="6.24204">
        <ele>851</ele>
        <time>2020-09-26T13:50:24+02:00</time>
      </trkpt>
      <trkpt lat="43.93291" lon="6.24211">
        <ele>853</ele>
        <time>2020-09-26T13:50:24+02:00</time>
      </trkpt>
      <trkpt lat="43.93299" lon="6.24217">
        <ele>861</ele>
        <time>2020-09-26T13:50:24+02:00</time>
      </trkpt>
      <trkpt lat="43.93308" lon="6.24221">
        <ele>863</ele>
        <time>2020-09-26T13:52:32+02:00</time>
      </trkpt>
      <trkpt lat="43.93316" lon="6.24216">
        <ele>865</ele>
        <time>2020-09-26T13:52:32+02:00</time>
      </trkpt>
      <trkpt lat="43.93326" lon="6.24213">
        <ele>876</ele>
        <time>2020-09-26T13:52:32+02:00</time>
      </trkpt>
      <trkpt lat="43.93331" lon="6.24203">
        <ele>878</ele>
        <time>2020-09-26T13:52:32+02:00</time>
      </trkpt>
      <trkpt lat="43.93341" lon="6.24198">
        <ele>875</ele>
        <time>2020-09-26T13:52:32+02:00</time>
      </trkpt>
      <trkpt lat="43.9335" lon="6.24198">
        <ele>875</ele>
        <time>2020-09-26T13:52:32+02:00</time>
      </trkpt>
      <trkpt lat="43.93359" lon="6.24195">
        <ele>872</ele>
        <time>2020-09-26T13:52:32+02:00</time>
      </trkpt>
      <trkpt lat="43.93367" lon="6.24203">
        <ele>873</ele>
        <time>2020-09-26T13:52:32+02:00</time>
      </trkpt>
      <trkpt lat="43.93376" lon="6.24209">
        <ele>876</ele>
        <time>2020-09-26T13:54:40+02:00</time>
      </trkpt>
      <trkpt lat="43.93385" lon="6.24208">
        <ele>878</ele>
        <time>2020-09-26T13:54:40+02:00</time>
      </trkpt>
      <trkpt lat="43.93394" lon="6.24204">
        <ele>880</ele>
        <time>2020-09-26T13:54:40+02:00</time>
      </trkpt>
      <trkpt lat="43.93402" lon="6.24199">
        <ele>879</ele>
        <time>2020-09-26T13:54:40+02:00</time>
      </trkpt>
      <trkpt lat="43.93411" lon="6.24201">
        <ele>875</ele>
        <time>2020-09-26T13:54:40+02:00</time>
      </trkpt>
      <trkpt lat="43.93419" lon="6.24192">
        <ele>875</ele>
        <time>2020-09-26T13:54:40+02:00</time>
      </trkpt>
      <trkpt lat="43.93427" lon="6.24186">
        <ele>876</ele>
        <time>2020-09-26T13:54:40+02:00</time>
      </trkpt>
      <trkpt lat="43.93435" lon="6.24179">
        <ele>875</ele>
        <time>2020-09-26T13:54:40+02:00</time>
      </trkpt>
      <trkpt lat="43.93444" lon="6.24173">
        <ele>875</ele>
        <time>2020-09-26T13:54:40+02:00</time>
      </trkpt>
      <trkpt lat="43.93454" lon="6.24172">
        <ele>878</ele>
        <time>2020-09-26T13:54:40+02:00</time>
      </trkpt>
      <trkpt lat="43.93462" lon="6.24163">
        <ele>877</ele>
        <time>2020-09-26T13:54:40+02:00</time>
      </trkpt>
      <trkpt lat="43.93471" lon="6.24162">
        <ele>876</ele>
        <time>2020-09-26T13:54:40+02:00</time>
      </trkpt>
      <trkpt lat="43.9348" lon="6.24166">
        <ele>876</ele>
        <time>2020-09-26T13:56:48+02:00</time>
      </trkpt>
      <trkpt lat="43.93489" lon="6.24168">
        <ele>874</ele>
        <time>2020-09-26T13:56:48+02:00</time>
      </trkpt>
      <trkpt lat="43.93498" lon="6.24172">
        <ele>874</ele>
        <time>2020-09-26T13:56:48+02:00</time>
      </trkpt>
      <trkpt lat="43.93509" lon="6.24175">
        <ele>872</ele>
        <time>2020-09-26T13:56:48+02:00</time>
      </trkpt>
      <trkpt lat="43.93517" lon="6.24181">
        <ele>874</ele>
        <time>2020-09-26T13:56:48+02:00</time>
      </trkpt>
      <trkpt lat="43.93524" lon="6.24191">
        <ele>875</ele>
        <time>2020-09-26T13:56:48+02:00</time>
      </trkpt>
      <trkpt lat="43.93534" lon="6.24189">
        <ele>875</ele>
        <time>2020-09-26T13:56:48+02:00</time>
      </trkpt>
      <trkpt lat="43.93543" lon="6.24191">
        <ele>878</ele>
        <time>2020-09-26T13:56:48+02:00</time>
      </trkpt>
      <trkpt lat="43.9355" lon="6.242">
        <ele>880</ele>
        <time>2020-09-26T13:56:48+02:00</time>
      </trkpt>
      <trkpt lat="43.9356" lon="6.24199">
        <ele>883</ele>
        <time>2020-09-26T13:56:48+02:00</time>
      </trkpt>
      <trkpt lat="43.93567" lon="6.24191">
        <ele>881</ele>
        <time>2020-09-26T13:56:48+02:00</time>
      </trkpt>
      <trkpt lat="43.93573" lon="6.24181">
        <ele>883</ele>
        <time>2020-09-26T13:56:48+02:00</time>
      </trkpt>
      <trkpt lat="43.9358" lon="6.2417">
        <ele>883</ele>
        <time>2020-09-26T13:58:56+02:00</time>
      </trkpt>
      <trkpt lat="43.93585" lon="6.24158">
        <ele>883</ele>
        <time>2020-09-26T13:58:56+02:00</time>
      </trkpt>
      <trkpt lat="43.93592" lon="6.24149">
        <ele>882</ele>
        <time>2020-09-26T13:58:56+02:00</time>
      </trkpt>
      <trkpt lat="43.93598" lon="6.24139">
        <ele>880</ele>
        <time>2020-09-26T13:58:56+02:00</time>
      </trkpt>
      <trkpt lat="43.93607" lon="6.24137">
        <ele>881</ele>
        <time>2020-09-26T13:58:56+02:00</time>
      </trkpt>
      <trkpt lat="43.93612" lon="6.24126">
        <ele>883</ele>
        <time>2020-09-26T13:58:56+02:00</time>
      </trkpt>
      <trkpt lat="43.93617" lon="6.24115">
        <ele>883</ele>
        <time>2020-09-26T13:58:56+02:00</time>
      </trkpt>
      <trkpt lat="43.93625" lon="6.24107">
        <ele>883</ele>
        <time>2020-09-26T13:58:56+02:00</time>
      </trkpt>
      <trkpt lat="43.93632" lon="6.24098">
        <ele>884</ele>
        <time>2020-09-26T13:58:56+02:00</time>
      </trkpt>
      <trkpt lat="43.93641" lon="6.24095">
        <ele>885</ele>
        <time>2020-09-26T13:58:56+02:00</time>
      </trkpt>
      <trkpt lat="43.93648" lon="6.24087">
        <ele>885</ele>
        <time>2020-09-26T13:58:56+02:00</time>
      </trkpt>
      <trkpt lat="43.93652" lon="6.24076">
        <ele>883</ele>
        <time>2020-09-26T13:58:56+02:00</time>
      </trkpt>
      <trkpt lat="43.93659" lon="6.24066">
        <ele>883</ele>
        <time>2020-09-26T13:58:56+02:00</time>
      </trkpt>
      <trkpt lat="43.93662" lon="6.24054">
        <ele>881</ele>
        <time>2020-09-26T13:58:56+02:00</time>
      </trkpt>
      <trkpt lat="43.93669" lon="6.24046">
        <ele>882</ele>
        <time>2020-09-26T14:01:04+02:00</time>
      </trkpt>
      <trkpt lat="43.93675" lon="6.24034">
        <ele>881</ele>
        <time>2020-09-26T14:01:04+02:00</time>
      </trkpt>
      <trkpt lat="43.93678" lon="6.24021">
        <ele>881</ele>
        <time>2020-09-26T14:01:04+02:00</time>
      </trkpt>
      <trkpt lat="43.93683" lon="6.2401">
        <ele>884</ele>
        <time>2020-09-26T14:01:04+02:00</time>
      </trkpt>
      <trkpt lat="43.93688" lon="6.23999">
        <ele>886</ele>
        <time>2020-09-26T14:01:04+02:00</time>
      </trkpt>
      <trkpt lat="43.9369" lon="6.23986">
        <ele>886</ele>
        <time>2020-09-26T14:01:04+02:00</time>
      </trkpt>
      <trkpt lat="43.93696" lon="6.23976">
        <ele>888</ele>
        <time>2020-09-26T14:01:04+02:00</time>
      </trkpt>
      <trkpt lat="43.93702" lon="6.23965">
        <ele>888</ele>
        <time>2020-09-26T14:01:04+02:00</time>
      </trkpt>
      <trkpt lat="43.93708" lon="6.23956">
        <ele>890</ele>
        <time>2020-09-26T14:01:04+02:00</time>
      </trkpt>
      <trkpt lat="43.93716" lon="6.23949">
        <ele>892</ele>
        <time>2020-09-26T14:01:04+02:00</time>
      </trkpt>
      <trkpt lat="43.93723" lon="6.23939">
        <ele>892</ele>
        <time>2020-09-26T14:01:04+02:00</time>
      </trkpt>
      <trkpt lat="43.93727" lon="6.23926">
        <ele>887</ele>
        <time>2020-09-26T14:01:04+02:00</time>
      </trkpt>
      <trkpt lat="43.93724" lon="6.23914">
        <ele>885</ele>
        <time>2020-09-26T14:01:04+02:00</time>
      </trkpt>
      <trkpt lat="43.9372" lon="6.23902">
        <ele>882</ele>
        <time>2020-09-26T14:01:04+02:00</time>
      </trkpt>
      <trkpt lat="43.93713" lon="6.23894">
        <ele>882</ele>
        <time>2020-09-26T14:03:12+02:00</time>
      </trkpt>
      <trkpt lat="43.93711" lon="6.23881">
        <ele>883</ele>
        <time>2020-09-26T14:03:12+02:00</time>
      </trkpt>
      <trkpt lat="43.93706" lon="6.2387">
        <ele>883</ele>
        <time>2020-09-26T14:03:12+02:00</time>
      </trkpt>
      <trkpt lat="43.93697" lon="6.23864">
        <ele>882</ele>
        <time>2020-09-26T14:03:12+02:00</time>
      </trkpt>
      <trkpt lat="43.93698" lon="6.23852">
        <ele>887</ele>
        <time>2020-09-26T14:03:12+02:00</time>
      </trkpt>
      <trkpt lat="43.93691" lon="6.23844">
        <ele>890</ele>
        <time>2020-09-26T14:03:12+02:00</time>
      </trkpt>
      <trkpt lat="43.93686" lon="6.23831">
        <ele>889</ele>
        <time>2020-09-26T14:03:12+02:00</time>
      </trkpt>
      <trkpt lat="43.93682" lon="6.2382">
        <ele>887</ele>
        <time>2020-09-26T14:05:20+02:00</time>
      </trkpt>
      <trkpt lat="43.93681" lon="6.23807">
        <ele>888</ele>
        <time>2020-09-26T14:05:20+02:00</time>
      </trkpt>
      <trkpt lat="43.93678" lon="6.23795">
        <ele>888</ele>
        <time>2020-09-26T14:05:20+02:00</time>
      </trkpt>
      <trkpt lat="43.9368" lon="6.23782">
        <ele>889</ele>
        <time>2020-09-26T14:05:20+02:00</time>
      </trkpt>
      <trkpt lat="43.93681" lon="6.2377">
        <ele>888</ele>
        <time>2020-09-26T14:05:20+02:00</time>
      </trkpt>
      <trkpt lat="43.93679" lon="6.23757">
        <ele>887</ele>
        <time>2020-09-26T14:05:20+02:00</time>
      </trkpt>
      <trkpt lat="43.93682" lon="6.23745">
        <ele>889</ele>
        <time>2020-09-26T14:05:20+02:00</time>
      </trkpt>
      <trkpt lat="43.93685" lon="6.23733">
        <ele>890</ele>
        <time>2020-09-26T14:05:20+02:00</time>
      </trkpt>
      <trkpt lat="43.93686" lon="6.23721">
        <ele>893</ele>
        <time>2020-09-26T14:05:20+02:00</time>
      </trkpt>
      <trkpt lat="43.93692" lon="6.23709">
        <ele>897</ele>
        <time>2020-09-26T14:05:20+02:00</time>
      </trkpt>
      <trkpt lat="43.93695" lon="6.23697">
        <ele>921</ele>
        <time>2020-09-26T14:07:28+02:00</time>
      </trkpt>
      <trkpt lat="43.93703" lon="6.23693">
        <ele>920</ele>
        <time>2020-09-26T14:07:28+02:00</time>
      </trkpt>
      <trkpt lat="43.9371" lon="6.23684">
        <ele>924</ele>
        <time>2020-09-26T14:07:28+02:00</time>
      </trkpt>
      <trkpt lat="43.93718" lon="6.23676">
        <ele>925</ele>
        <time>2020-09-26T14:07:28+02:00</time>
      </trkpt>
      <trkpt lat="43.93725" lon="6.23668">
        <ele>923</ele>
        <time>2020-09-26T14:07:28+02:00</time>
      </trkpt>
      <trkpt lat="43.93733" lon="6.23659">
        <ele>922</ele>
        <time>2020-09-26T14:07:28+02:00</time>
      </trkpt>
      <trkpt lat="43.93739" lon="6.2365">
        <ele>921</ele>
        <time>2020-09-26T14:07:28+02:00</time>
      </trkpt>
      <trkpt lat="43.93747" lon="6.23642">
        <ele>922</ele>
        <time>2020-09-26T14:07:28+02:00</time>
      </trkpt>
      <trkpt lat="43.93756" lon="6.23638">
        <ele>923</ele>
        <time>2020-09-26T14:09:36+02:00</time>
      </trkpt>
      <trkpt lat="43.93762" lon="6.23628">
        <ele>921</ele>
        <time>2020-09-26T14:09:36+02:00</time>
      </trkpt>
      <trkpt lat="43.93768" lon="6.23618">
        <ele>922</ele>
        <time>2020-09-26T14:09:36+02:00</time>
      </trkpt>
      <trkpt lat="43.93772" lon="6.23606">
        <ele>919</ele>
        <time>2020-09-26T14:09:36+02:00</time>
      </trkpt>
      <trkpt lat="43.93771" lon="6.23593">
        <ele>917</ele>
        <time>2020-09-26T14:09:36+02:00</time>
      </trkpt>
      <trkpt lat="43.9377" lon="6.23581">
        <ele>916</ele>
        <time>2020-09-26T14:09:36+02:00</time>
      </trkpt>
      <trkpt lat="43.93768" lon="6.23568">
        <ele>920</ele>
        <time>2020-09-26T14:09:36+02:00</time>
      </trkpt>
      <trkpt lat="43.93769" lon="6.23554">
        <ele>929</ele>
        <time>2020-09-26T14:09:36+02:00</time>
      </trkpt>
      <trkpt lat="43.93771" lon="6.23542">
        <ele>929</ele>
        <time>2020-09-26T14:11:44+02:00</time>
      </trkpt>
      <trkpt lat="43.93776" lon="6.23531">
        <ele>926</ele>
        <time>2020-09-26T14:11:44+02:00</time>
      </trkpt>
      <trkpt lat="43.93782" lon="6.23522">
        <ele>924</ele>
        <time>2020-09-26T14:11:44+02:00</time>
      </trkpt>
      <trkpt lat="43.93788" lon="6.23512">
        <ele>922</ele>
        <time>2020-09-26T14:11:44+02:00</time>
      </trkpt>
      <trkpt lat="43.93795" lon="6.23503">
        <ele>920</ele>
        <time>2020-09-26T14:11:44+02:00</time>
      </trkpt>
      <trkpt lat="43.93805" lon="6.23498">
        <ele>920</ele>
        <time>2020-09-26T14:11:44+02:00</time>
      </trkpt>
      <trkpt lat="43.93813" lon="6.23493">
        <ele>918</ele>
        <time>2020-09-26T14:11:44+02:00</time>
      </trkpt>
      <trkpt lat="43.93818" lon="6.23481">
        <ele>917</ele>
        <time>2020-09-26T14:11:44+02:00</time>
      </trkpt>
      <trkpt lat="43.93816" lon="6.23468">
        <ele>913</ele>
        <time>2020-09-26T14:11:44+02:00</time>
      </trkpt>
      <trkpt lat="43.9381" lon="6.23458">
        <ele>911</ele>
        <time>2020-09-26T14:13:52+02:00</time>
      </trkpt>
      <trkpt lat="43.9381" lon="6.23444">
        <ele>909</ele>
        <time>2020-09-26T14:13:52+02:00</time>
      </trkpt>
      <trkpt lat="43.93809" lon="6.23431">
        <ele>906</ele>
        <time>2020-09-26T14:13:52+02:00</time>
      </trkpt>
      <trkpt lat="43.93811" lon="6.23418">
        <ele>903</ele>
        <time>2020-09-26T14:13:52+02:00</time>
      </trkpt>
      <trkpt lat="43.93818" lon="6.23408">
        <ele>902</ele>
        <time>2020-09-26T14:13:52+02:00</time>
      </trkpt>
      <trkpt lat="43.93822" lon="6.23395">
        <ele>899</ele>
        <time>2020-09-26T14:13:52+02:00</time>
      </trkpt>
      <trkpt lat="43.93825" lon="6.23383">
        <ele>899</ele>
        <time>2020-09-26T14:13:52+02:00</time>
      </trkpt>
      <trkpt lat="43.93828" lon="6.23371">
        <ele>896</ele>
        <time>2020-09-26T14:13:52+02:00</time>
      </trkpt>
      <trkpt lat="43.93829" lon="6.23358">
        <ele>894</ele>
        <time>2020-09-26T14:13:52+02:00</time>
      </trkpt>
      <trkpt lat="43.9383" lon="6.23345">
        <ele>892</ele>
        <time>2020-09-26T14:13:52+02:00</time>
      </trkpt>
      <trkpt lat="43.9383" lon="6.23331">
        <ele>889</ele>
        <time>2020-09-26T14:13:52+02:00</time>
      </trkpt>
      <trkpt lat="43.93839" lon="6.23328">
        <ele>891</ele>
        <time>2020-09-26T14:16:00+02:00</time>
      </trkpt>
      <trkpt lat="43.93849" lon="6.23326">
        <ele>891</ele>
        <time>2020-09-26T14:16:00+02:00</time>
      </trkpt>
      <trkpt lat="43.93859" lon="6.23323">
        <ele>894</ele>
        <time>2020-09-26T14:16:00+02:00</time>
      </trkpt>
      <trkpt lat="43.93869" lon="6.23321">
        <ele>899</ele>
        <time>2020-09-26T14:16:00+02:00</time>
      </trkpt>
      <trkpt lat="43.93878" lon="6.23321">
        <ele>901</ele>
        <time>2020-09-26T14:16:00+02:00</time>
      </trkpt>
      <trkpt lat="43.93887" lon="6.23322">
        <ele>894</ele>
        <time>2020-09-26T14:16:00+02:00</time>
      </trkpt>
      <trkpt lat="43.93897" lon="6.2332">
        <ele>892</ele>
        <time>2020-09-26T14:16:00+02:00</time>
      </trkpt>
      <trkpt lat="43.93906" lon="6.23321">
        <ele>892</ele>
        <time>2020-09-26T14:16:00+02:00</time>
      </trkpt>
      <trkpt lat="43.93915" lon="6.23321">
        <ele>891</ele>
        <time>2020-09-26T14:16:00+02:00</time>
      </trkpt>
      <trkpt lat="43.93924" lon="6.23321">
        <ele>888</ele>
        <time>2020-09-26T14:16:00+02:00</time>
      </trkpt>
      <trkpt lat="43.93934" lon="6.2332">
        <ele>887</ele>
        <time>2020-09-26T14:16:00+02:00</time>
      </trkpt>
      <trkpt lat="43.93943" lon="6.23321">
        <ele>884</ele>
        <time>2020-09-26T14:18:08+02:00</time>
      </trkpt>
      <trkpt lat="43.93951" lon="6.23328">
        <ele>881</ele>
        <time>2020-09-26T14:18:08+02:00</time>
      </trkpt>
      <trkpt lat="43.9396" lon="6.23332">
        <ele>880</ele>
        <time>2020-09-26T14:18:08+02:00</time>
      </trkpt>
      <trkpt lat="43.93969" lon="6.23333">
        <ele>879</ele>
        <time>2020-09-26T14:18:08+02:00</time>
      </trkpt>
      <trkpt lat="43.93978" lon="6.23338">
        <ele>876</ele>
        <time>2020-09-26T14:18:08+02:00</time>
      </trkpt>
      <trkpt lat="43.93986" lon="6.23344">
        <ele>874</ele>
        <time>2020-09-26T14:18:08+02:00</time>
      </trkpt>
      <trkpt lat="43.93995" lon="6.23345">
        <ele>874</ele>
        <time>2020-09-26T14:18:08+02:00</time>
      </trkpt>
      <trkpt lat="43.94005" lon="6.23354">
        <ele>872</ele>
        <time>2020-09-26T14:18:08+02:00</time>
      </trkpt>
      <trkpt lat="43.94014" lon="6.23357">
        <ele>872</ele>
        <time>2020-09-26T14:18:08+02:00</time>
      </trkpt>
      <trkpt lat="43.94023" lon="6.2336">
        <ele>866</ele>
        <time>2020-09-26T14:18:08+02:00</time>
      </trkpt>
      <trkpt lat="43.94031" lon="6.23367">
        <ele>864</ele>
        <time>2020-09-26T14:18:08+02:00</time>
      </trkpt>
      <trkpt lat="43.94039" lon="6.23373">
        <ele>863</ele>
        <time>2020-09-26T14:20:16+02:00</time>
      </trkpt>
      <trkpt lat="43.94049" lon="6.23376">
        <ele>863</ele>
        <time>2020-09-26T14:20:16+02:00</time>
      </trkpt>
      <trkpt lat="43.94059" lon="6.23377">
        <ele>862</ele>
        <time>2020-09-26T14:20:16+02:00</time>
      </trkpt>
      <trkpt lat="43.94068" lon="6.2338">
        <ele>864</ele>
        <time>2020-09-26T14:20:16+02:00</time>
      </trkpt>
      <trkpt lat="43.94076" lon="6.23387">
        <ele>862</ele>
        <time>2020-09-26T14:20:16+02:00</time>
      </trkpt>
      <trkpt lat="43.94084" lon="6.23393">
        <ele>860</ele>
        <time>2020-09-26T14:20:16+02:00</time>
      </trkpt>
      <trkpt lat="43.94089" lon="6.23403">
        <ele>856</ele>
        <time>2020-09-26T14:20:16+02:00</time>
      </trkpt>
      <trkpt lat="43.94097" lon="6.23411">
        <ele>857</ele>
        <time>2020-09-26T14:20:16+02:00</time>
      </trkpt>
      <trkpt lat="43.94101" lon="6.23423">
        <ele>853</ele>
        <time>2020-09-26T14:20:16+02:00</time>
      </trkpt>
      <trkpt lat="43.94105" lon="6.23434">
        <ele>853</ele>
        <time>2020-09-26T14:20:16+02:00</time>
      </trkpt>
      <trkpt lat="43.94112" lon="6.23443">
        <ele>851</ele>
        <time>2020-09-26T14:22:24+02:00</time>
      </trkpt>
      <trkpt lat="43.94111" lon="6.23456">
        <ele>849</ele>
        <time>2020-09-26T14:22:24+02:00</time>
      </trkpt>
      <trkpt lat="43.94112" lon="6.23469">
        <ele>848</ele>
        <time>2020-09-26T14:22:24+02:00</time>
      </trkpt>
      <trkpt lat="43.94119" lon="6.23479">
        <ele>848</ele>
        <time>2020-09-26T14:22:24+02:00</time>
      </trkpt>
      <trkpt lat="43.94122" lon="6.23492">
        <ele>845</ele>
        <time>2020-09-26T14:22:24+02:00</time>
      </trkpt>
      <trkpt lat="43.94131" lon="6.23495">
        <ele>844</ele>
        <time>2020-09-26T14:22:24+02:00</time>
      </trkpt>
      <trkpt lat="43.94138" lon="6.23487">
        <ele>840</ele>
        <time>2020-09-26T14:22:24+02:00</time>
      </trkpt>
      <trkpt lat="43.94141" lon="6.23475">
        <ele>837</ele>
        <time>2020-09-26T14:22:24+02:00</time>
      </trkpt>
      <trkpt lat="43.94146" lon="6.23465">
        <ele>837</ele>
        <time>2020-09-26T14:22:24+02:00</time>
      </trkpt>
      <trkpt lat="43.94145" lon="6.23451">
        <ele>833</ele>
        <time>2020-09-26T14:22:24+02:00</time>
      </trkpt>
      <trkpt lat="43.94146" lon="6.23438">
        <ele>834</ele>
        <time>2020-09-26T14:22:24+02:00</time>
      </trkpt>
      <trkpt lat="43.94149" lon="6.23426">
        <ele>835</ele>
        <time>2020-09-26T14:22:24+02:00</time>
      </trkpt>
      <trkpt lat="43.94155" lon="6.23415">
        <ele>835</ele>
        <time>2020-09-26T14:22:24+02:00</time>
      </trkpt>
      <trkpt lat="43.9416" lon="6.23403">
        <ele>834</ele>
        <time>2020-09-26T14:24:32+02:00</time>
      </trkpt>
      <trkpt lat="43.94162" lon="6.23391">
        <ele>832</ele>
        <time>2020-09-26T14:24:32+02:00</time>
      </trkpt>
      <trkpt lat="43.94158" lon="6.23379">
        <ele>831</ele>
        <time>2020-09-26T14:24:32+02:00</time>
      </trkpt>
      <trkpt lat="43.9415" lon="6.2337">
        <ele>830</ele>
        <time>2020-09-26T14:24:32+02:00</time>
      </trkpt>
      <trkpt lat="43.94147" lon="6.23357">
        <ele>830</ele>
        <time>2020-09-26T14:24:32+02:00</time>
      </trkpt>
      <trkpt lat="43.94147" lon="6.23345">
        <ele>828</ele>
        <time>2020-09-26T14:24:32+02:00</time>
      </trkpt>
      <trkpt lat="43.94144" lon="6.23333">
        <ele>826</ele>
        <time>2020-09-26T14:24:32+02:00</time>
      </trkpt>
      <trkpt lat="43.9414" lon="6.2332">
        <ele>821</ele>
        <time>2020-09-26T14:24:32+02:00</time>
      </trkpt>
      <trkpt lat="43.94135" lon="6.2331">
        <ele>821</ele>
        <time>2020-09-26T14:24:32+02:00</time>
      </trkpt>
      <trkpt lat="43.94126" lon="6.23305">
        <ele>822</ele>
        <time>2020-09-26T14:24:32+02:00</time>
      </trkpt>
      <trkpt lat="43.94116" lon="6.23302">
        <ele>821</ele>
        <time>2020-09-26T14:24:32+02:00</time>
      </trkpt>
      <trkpt lat="43.94111" lon="6.23291">
        <ele>820</ele>
        <time>2020-09-26T14:24:32+02:00</time>
      </trkpt>
      <trkpt lat="43.94104" lon="6.23284">
        <ele>822</ele>
        <time>2020-09-26T14:24:32+02:00</time>
      </trkpt>
      <trkpt lat="43.941" lon="6.23271">
        <ele>825</ele>
        <time>2020-09-26T14:26:40+02:00</time>
      </trkpt>
      <trkpt lat="43.94091" lon="6.23266">
        <ele>828</ele>
        <time>2020-09-26T14:26:40+02:00</time>
      </trkpt>
      <trkpt lat="43.94092" lon="6.23253">
        <ele>827</ele>
        <time>2020-09-26T14:26:40+02:00</time>
      </trkpt>
      <trkpt lat="43.94102" lon="6.2325">
        <ele>831</ele>
        <time>2020-09-26T14:26:40+02:00</time>
      </trkpt>
      <trkpt lat="43.94111" lon="6.23247">
        <ele>833</ele>
        <time>2020-09-26T14:26:40+02:00</time>
      </trkpt>
      <trkpt lat="43.9412" lon="6.23246">
        <ele>838</ele>
        <time>2020-09-26T14:26:40+02:00</time>
      </trkpt>
      <trkpt lat="43.94129" lon="6.23247">
        <ele>840</ele>
        <time>2020-09-26T14:26:40+02:00</time>
      </trkpt>
      <trkpt lat="43.9414" lon="6.23248">
        <ele>844</ele>
        <time>2020-09-26T14:26:40+02:00</time>
      </trkpt>
      <trkpt lat="43.9415" lon="6.2325">
        <ele>843</ele>
        <time>2020-09-26T14:26:40+02:00</time>
      </trkpt>
      <trkpt lat="43.9416" lon="6.2325">
        <ele>841</ele>
        <time>2020-09-26T14:26:40+02:00</time>
      </trkpt>
      <trkpt lat="43.94169" lon="6.23245">
        <ele>842</ele>
        <time>2020-09-26T14:26:40+02:00</time>
      </trkpt>
      <trkpt lat="43.94178" lon="6.23245">
        <ele>843</ele>
        <time>2020-09-26T14:28:48+02:00</time>
      </trkpt>
      <trkpt lat="43.94188" lon="6.23248">
        <ele>842</ele>
        <time>2020-09-26T14:28:48+02:00</time>
      </trkpt>
      <trkpt lat="43.94199" lon="6.23249">
        <ele>840</ele>
        <time>2020-09-26T14:28:48+02:00</time>
      </trkpt>
      <trkpt lat="43.94209" lon="6.23251">
        <ele>842</ele>
        <time>2020-09-26T14:28:48+02:00</time>
      </trkpt>
      <trkpt lat="43.94218" lon="6.23249">
        <ele>843</ele>
        <time>2020-09-26T14:28:48+02:00</time>
      </trkpt>
      <trkpt lat="43.94227" lon="6.23246">
        <ele>842</ele>
        <time>2020-09-26T14:28:48+02:00</time>
      </trkpt>
      <trkpt lat="43.94236" lon="6.23246">
        <ele>842</ele>
        <time>2020-09-26T14:28:48+02:00</time>
      </trkpt>
      <trkpt lat="43.94245" lon="6.23246">
        <ele>842</ele>
        <time>2020-09-26T14:28:48+02:00</time>
      </trkpt>
      <trkpt lat="43.94255" lon="6.23245">
        <ele>841</ele>
        <time>2020-09-26T14:28:48+02:00</time>
      </trkpt>
      <trkpt lat="43.94264" lon="6.23247">
        <ele>844</ele>
        <time>2020-09-26T14:28:48+02:00</time>
      </trkpt>
      <trkpt lat="43.94273" lon="6.23245">
        <ele>841</ele>
        <time>2020-09-26T14:28:48+02:00</time>
      </trkpt>
      <trkpt lat="43.94283" lon="6.23245">
        <ele>841</ele>
        <time>2020-09-26T14:30:56+02:00</time>
      </trkpt>
      <trkpt lat="43.94292" lon="6.23249">
        <ele>841</ele>
        <time>2020-09-26T14:30:56+02:00</time>
      </trkpt>
      <trkpt lat="43.94301" lon="6.23252">
        <ele>844</ele>
        <time>2020-09-26T14:30:56+02:00</time>
      </trkpt>
      <trkpt lat="43.94293" lon="6.23245">
        <ele>841</ele>
        <time>2020-09-26T14:33:04+02:00</time>
      </trkpt>
      <trkpt lat="43.94302" lon="6.23249">
        <ele>844</ele>
        <time>2020-09-26T14:37:20+02:00</time>
      </trkpt>
      <trkpt lat="43.9431" lon="6.23255">
        <ele>845</ele>
        <time>2020-09-26T14:37:20+02:00</time>
      </trkpt>
      <trkpt lat="43.94319" lon="6.23255">
        <ele>842</ele>
        <time>2020-09-26T14:37:20+02:00</time>
      </trkpt>
      <trkpt lat="43.94329" lon="6.23255">
        <ele>842</ele>
        <time>2020-09-26T14:37:20+02:00</time>
      </trkpt>
      <trkpt lat="43.94338" lon="6.2325">
        <ele>839</ele>
        <time>2020-09-26T14:37:20+02:00</time>
      </trkpt>
      <trkpt lat="43.94338" lon="6.23237">
        <ele>839</ele>
        <time>2020-09-26T14:37:20+02:00</time>
      </trkpt>
      <trkpt lat="43.94331" lon="6.23226">
        <ele>839</ele>
        <time>2020-09-26T14:37:20+02:00</time>
      </trkpt>
      <trkpt lat="43.9433" lon="6.23214">
        <ele>838</ele>
        <time>2020-09-26T14:37:20+02:00</time>
      </trkpt>
      <trkpt lat="43.94327" lon="6.23201">
        <ele>837</ele>
        <time>2020-09-26T14:37:20+02:00</time>
      </trkpt>
      <trkpt lat="43.9432" lon="6.23191">
        <ele>835</ele>
        <time>2020-09-26T14:37:20+02:00</time>
      </trkpt>
      <trkpt lat="43.94316" lon="6.23179">
        <ele>836</ele>
        <time>2020-09-26T14:37:20+02:00</time>
      </trkpt>
      <trkpt lat="43.94314" lon="6.23166">
        <ele>836</ele>
        <time>2020-09-26T14:37:20+02:00</time>
      </trkpt>
      <trkpt lat="43.94307" lon="6.23157">
        <ele>838</ele>
        <time>2020-09-26T14:37:20+02:00</time>
      </trkpt>
      <trkpt lat="43.94307" lon="6.23144">
        <ele>838</ele>
        <time>2020-09-26T14:39:28+02:00</time>
      </trkpt>
      <trkpt lat="43.94306" lon="6.23132">
        <ele>838</ele>
        <time>2020-09-26T14:39:28+02:00</time>
      </trkpt>
      <trkpt lat="43.94314" lon="6.23137">
        <ele>834</ele>
        <time>2020-09-26T14:39:28+02:00</time>
      </trkpt>
      <trkpt lat="43.94315" lon="6.2315">
        <ele>832</ele>
        <time>2020-09-26T14:39:28+02:00</time>
      </trkpt>
      <trkpt lat="43.94323" lon="6.23144">
        <ele>831</ele>
        <time>2020-09-26T14:39:28+02:00</time>
      </trkpt>
      <trkpt lat="43.94332" lon="6.23138">
        <ele>830</ele>
        <time>2020-09-26T14:39:28+02:00</time>
      </trkpt>
      <trkpt lat="43.94341" lon="6.23138">
        <ele>830</ele>
        <time>2020-09-26T14:39:28+02:00</time>
      </trkpt>
      <trkpt lat="43.9435" lon="6.2314">
        <ele>827</ele>
        <time>2020-09-26T14:41:36+02:00</time>
      </trkpt>
      <trkpt lat="43.94343" lon="6.23148">
        <ele>818</ele>
        <time>2020-09-26T14:41:36+02:00</time>
      </trkpt>
      <trkpt lat="43.94341" lon="6.23161">
        <ele>817</ele>
        <time>2020-09-26T14:41:36+02:00</time>
      </trkpt>
      <trkpt lat="43.9435" lon="6.23157">
        <ele>811</ele>
        <time>2020-09-26T14:41:36+02:00</time>
      </trkpt>
      <trkpt lat="43.94359" lon="6.2316">
        <ele>812</ele>
        <time>2020-09-26T14:41:36+02:00</time>
      </trkpt>
      <trkpt lat="43.94368" lon="6.23161">
        <ele>811</ele>
        <time>2020-09-26T14:41:36+02:00</time>
      </trkpt>
      <trkpt lat="43.94377" lon="6.23156">
        <ele>808</ele>
        <time>2020-09-26T14:41:36+02:00</time>
      </trkpt>
      <trkpt lat="43.94384" lon="6.23148">
        <ele>801</ele>
        <time>2020-09-26T14:43:44+02:00</time>
      </trkpt>
      <trkpt lat="43.9439" lon="6.23137">
        <ele>794</ele>
        <time>2020-09-26T14:43:44+02:00</time>
      </trkpt>
      <trkpt lat="43.94393" lon="6.2315">
        <ele>791</ele>
        <time>2020-09-26T14:43:44+02:00</time>
      </trkpt>
      <trkpt lat="43.944" lon="6.23162">
        <ele>793</ele>
        <time>2020-09-26T14:43:44+02:00</time>
      </trkpt>
      <trkpt lat="43.94398" lon="6.2315">
        <ele>788</ele>
        <time>2020-09-26T14:43:44+02:00</time>
      </trkpt>
      <trkpt lat="43.94403" lon="6.23138">
        <ele>785</ele>
        <time>2020-09-26T14:45:52+02:00</time>
      </trkpt>
      <trkpt lat="43.94404" lon="6.23125">
        <ele>784</ele>
        <time>2020-09-26T14:45:52+02:00</time>
      </trkpt>
      <trkpt lat="43.94404" lon="6.23139">
        <ele>782</ele>
        <time>2020-09-26T14:45:52+02:00</time>
      </trkpt>
      <trkpt lat="43.94409" lon="6.2315">
        <ele>781</ele>
        <time>2020-09-26T14:45:52+02:00</time>
      </trkpt>
      <trkpt lat="43.94416" lon="6.23141">
        <ele>770</ele>
        <time>2020-09-26T14:45:52+02:00</time>
      </trkpt>
      <trkpt lat="43.94421" lon="6.23129">
        <ele>769</ele>
        <time>2020-09-26T14:45:52+02:00</time>
      </trkpt>
      <trkpt lat="43.94423" lon="6.23142">
        <ele>765</ele>
        <time>2020-09-26T14:48:00+02:00</time>
      </trkpt>
      <trkpt lat="43.94429" lon="6.23153">
        <ele>767</ele>
        <time>2020-09-26T14:48:00+02:00</time>
      </trkpt>
      <trkpt lat="43.94424" lon="6.23165">
        <ele>765</ele>
        <time>2020-09-26T14:48:00+02:00</time>
      </trkpt>
      <trkpt lat="43.94426" lon="6.23177">
        <ele>766</ele>
        <time>2020-09-26T14:48:00+02:00</time>
      </trkpt>
      <trkpt lat="43.94433" lon="6.23186">
        <ele>765</ele>
        <time>2020-09-26T14:50:08+02:00</time>
      </trkpt>
      <trkpt lat="43.9444" lon="6.23195">
        <ele>767</ele>
        <time>2020-09-26T14:50:08+02:00</time>
      </trkpt>
      <trkpt lat="43.94439" lon="6.23182">
        <ele>753</ele>
        <time>2020-09-26T14:50:08+02:00</time>
      </trkpt>
      <trkpt lat="43.94438" lon="6.23168">
        <ele>741</ele>
        <time>2020-09-26T14:50:08+02:00</time>
      </trkpt>
      <trkpt lat="43.9444" lon="6.23156">
        <ele>738</ele>
        <time>2020-09-26T14:50:08+02:00</time>
      </trkpt>
      <trkpt lat="43.94448" lon="6.23149">
        <ele>738</ele>
        <time>2020-09-26T14:50:08+02:00</time>
      </trkpt>
      <trkpt lat="43.94442" lon="6.23159">
        <ele>743</ele>
        <time>2020-09-26T14:50:08+02:00</time>
      </trkpt>
      <trkpt lat="43.9445" lon="6.23155">
        <ele>737</ele>
        <time>2020-09-26T14:52:16+02:00</time>
      </trkpt>
      <trkpt lat="43.94456" lon="6.23165">
        <ele>736</ele>
        <time>2020-09-26T14:52:16+02:00</time>
      </trkpt>
      <trkpt lat="43.94461" lon="6.23176">
        <ele>741</ele>
        <time>2020-09-26T14:52:16+02:00</time>
      </trkpt>
      <trkpt lat="43.94463" lon="6.23163">
        <ele>737</ele>
        <time>2020-09-26T14:52:16+02:00</time>
      </trkpt>
      <trkpt lat="43.94468" lon="6.23153">
        <ele>732</ele>
        <time>2020-09-26T14:54:24+02:00</time>
      </trkpt>
      <trkpt lat="43.94465" lon="6.2314">
        <ele>728</ele>
        <time>2020-09-26T14:54:24+02:00</time>
      </trkpt>
      <trkpt lat="43.94467" lon="6.23153">
        <ele>728</ele>
        <time>2020-09-26T14:54:24+02:00</time>
      </trkpt>
      <trkpt lat="43.94471" lon="6.23164">
        <ele>729</ele>
        <time>2020-09-26T14:54:24+02:00</time>
      </trkpt>
      <trkpt lat="43.94474" lon="6.23152">
        <ele>722</ele>
        <time>2020-09-26T14:54:24+02:00</time>
      </trkpt>
      <trkpt lat="43.94481" lon="6.23143">
        <ele>717</ele>
        <time>2020-09-26T14:54:24+02:00</time>
      </trkpt>
      <trkpt lat="43.94485" lon="6.23132">
        <ele>712</ele>
        <time>2020-09-26T14:56:32+02:00</time>
      </trkpt>
      <trkpt lat="43.94482" lon="6.23144">
        <ele>720</ele>
        <time>2020-09-26T14:56:32+02:00</time>
      </trkpt>
      <trkpt lat="43.94491" lon="6.23139">
        <ele>717</ele>
        <time>2020-09-26T14:56:32+02:00</time>
      </trkpt>
      <trkpt lat="43.945" lon="6.23144">
        <ele>722</ele>
        <time>2020-09-26T14:58:40+02:00</time>
      </trkpt>
      <trkpt lat="43.94506" lon="6.23154">
        <ele>724</ele>
        <time>2020-09-26T14:58:40+02:00</time>
      </trkpt>
      <trkpt lat="43.94512" lon="6.23163">
        <ele>730</ele>
        <time>2020-09-26T14:58:40+02:00</time>
      </trkpt>
      <trkpt lat="43.94522" lon="6.2316">
        <ele>729</ele>
        <time>2020-09-26T14:58:40+02:00</time>
      </trkpt>
      <trkpt lat="43.94531" lon="6.2316">
        <ele>727</ele>
        <time>2020-09-26T14:58:40+02:00</time>
      </trkpt>
      <trkpt lat="43.94541" lon="6.23165">
        <ele>727</ele>
        <time>2020-09-26T15:00:48+02:00</time>
      </trkpt>
      <trkpt lat="43.94549" lon="6.23172">
        <ele>725</ele>
        <time>2020-09-26T15:00:48+02:00</time>
      </trkpt>
      <trkpt lat="43.9454" lon="6.23177">
        <ele>719</ele>
        <time>2020-09-26T15:00:48+02:00</time>
      </trkpt>
      <trkpt lat="43.94531" lon="6.23181">
        <ele>715</ele>
        <time>2020-09-26T15:00:48+02:00</time>
      </trkpt>
      <trkpt lat="43.94522" lon="6.23181">
        <ele>714</ele>
        <time>2020-09-26T15:00:48+02:00</time>
      </trkpt>
      <trkpt lat="43.94529" lon="6.23188">
        <ele>714</ele>
        <time>2020-09-26T15:02:56+02:00</time>
      </trkpt>
      <trkpt lat="43.94537" lon="6.23193">
        <ele>712</ele>
        <time>2020-09-26T15:02:56+02:00</time>
      </trkpt>
      <trkpt lat="43.94546" lon="6.232">
        <ele>707</ele>
        <time>2020-09-26T15:02:56+02:00</time>
      </trkpt>
      <trkpt lat="43.94551" lon="6.23211">
        <ele>704</ele>
        <time>2020-09-26T15:02:56+02:00</time>
      </trkpt>
      <trkpt lat="43.94559" lon="6.23217">
        <ele>703</ele>
        <time>2020-09-26T15:02:56+02:00</time>
      </trkpt>
      <trkpt lat="43.94568" lon="6.2322">
        <ele>697</ele>
        <time>2020-09-26T15:02:56+02:00</time>
      </trkpt>
      <trkpt lat="43.94578" lon="6.23218">
        <ele>695</ele>
        <time>2020-09-26T15:05:04+02:00</time>
      </trkpt>
      <trkpt lat="43.94587" lon="6.23214">
        <ele>691</ele>
        <time>2020-09-26T15:05:04+02:00</time>
      </trkpt>
      <trkpt lat="43.94595" lon="6.23206">
        <ele>701</ele>
        <time>2020-09-26T15:05:04+02:00</time>
      </trkpt>
      <trkpt lat="43.94598" lon="6.23218">
        <ele>704</ele>
        <time>2020-09-26T15:07:12+02:00</time>
      </trkpt>
      <trkpt lat="43.94607" lon="6.23219">
        <ele>700</ele>
        <time>2020-09-26T15:07:12+02:00</time>
      </trkpt>
      <trkpt lat="43.94614" lon="6.2321">
        <ele>701</ele>
        <time>2020-09-26T15:07:12+02:00</time>
      </trkpt>
      <trkpt lat="43.94624" lon="6.23209">
        <ele>701</ele>
        <time>2020-09-26T15:07:12+02:00</time>
      </trkpt>
      <trkpt lat="43.94633" lon="6.23207">
        <ele>706</ele>
        <time>2020-09-26T15:07:12+02:00</time>
      </trkpt>
      <trkpt lat="43.94643" lon="6.23205">
        <ele>704</ele>
        <time>2020-09-26T15:07:12+02:00</time>
      </trkpt>
      <trkpt lat="43.94651" lon="6.23212">
        <ele>697</ele>
        <time>2020-09-26T15:09:20+02:00</time>
      </trkpt>
      <trkpt lat="43.9466" lon="6.23216">
        <ele>696</ele>
        <time>2020-09-26T15:09:20+02:00</time>
      </trkpt>
      <trkpt lat="43.94668" lon="6.23223">
        <ele>698</ele>
        <time>2020-09-26T15:09:20+02:00</time>
      </trkpt>
      <trkpt lat="43.94675" lon="6.2323">
        <ele>699</ele>
        <time>2020-09-26T15:09:20+02:00</time>
      </trkpt>
      <trkpt lat="43.94684" lon="6.23231">
        <ele>692</ele>
        <time>2020-09-26T15:09:20+02:00</time>
      </trkpt>
      <trkpt lat="43.94693" lon="6.23226">
        <ele>688</ele>
        <time>2020-09-26T15:09:20+02:00</time>
      </trkpt>
      <trkpt lat="43.94699" lon="6.23217">
        <ele>685</ele>
        <time>2020-09-26T15:09:20+02:00</time>
      </trkpt>
      <trkpt lat="43.94708" lon="6.23217">
        <ele>675</ele>
        <time>2020-09-26T15:11:28+02:00</time>
      </trkpt>
      <trkpt lat="43.94711" lon="6.23205">
        <ele>668</ele>
        <time>2020-09-26T15:13:36+02:00</time>
      </trkpt>
      <trkpt lat="43.94714" lon="6.23193">
        <ele>662</ele>
        <time>2020-09-26T15:13:36+02:00</time>
      </trkpt>
      <trkpt lat="43.94715" lon="6.23179">
        <ele>665</ele>
        <time>2020-09-26T15:13:36+02:00</time>
      </trkpt>
      <trkpt lat="43.94719" lon="6.23167">
        <ele>664</ele>
        <time>2020-09-26T15:13:36+02:00</time>
      </trkpt>
      <trkpt lat="43.94725" lon="6.23157">
        <ele>661</ele>
        <time>2020-09-26T15:13:36+02:00</time>
      </trkpt>
      <trkpt lat="43.94732" lon="6.23149">
        <ele>659</ele>
        <time>2020-09-26T15:13:36+02:00</time>
      </trkpt>
      <trkpt lat="43.94736" lon="6.23137">
        <ele>659</ele>
        <time>2020-09-26T15:13:36+02:00</time>
      </trkpt>
      <trkpt lat="43.94739" lon="6.23125">
        <ele>660</ele>
        <time>2020-09-26T15:13:36+02:00</time>
      </trkpt>
      <trkpt lat="43.94739" lon="6.23111">
        <ele>661</ele>
        <time>2020-09-26T15:15:44+02:00</time>
      </trkpt>
      <trkpt lat="43.94737" lon="6.23098">
        <ele>659</ele>
        <time>2020-09-26T15:15:44+02:00</time>
      </trkpt>
      <trkpt lat="43.94741" lon="6.23086">
        <ele>656</ele>
        <time>2020-09-26T15:15:44+02:00</time>
      </trkpt>
      <trkpt lat="43.94743" lon="6.23073">
        <ele>654</ele>
        <time>2020-09-26T15:15:44+02:00</time>
      </trkpt>
      <trkpt lat="43.94742" lon="6.23059">
        <ele>650</ele>
        <time>2020-09-26T15:15:44+02:00</time>
      </trkpt>
      <trkpt lat="43.94744" lon="6.23046">
        <ele>650</ele>
        <time>2020-09-26T15:15:44+02:00</time>
      </trkpt>
      <trkpt lat="43.9474" lon="6.23032">
        <ele>650</ele>
        <time>2020-09-26T15:15:44+02:00</time>
      </trkpt>
      <trkpt lat="43.9474" lon="6.23019">
        <ele>649</ele>
        <time>2020-09-26T15:15:44+02:00</time>
      </trkpt>
      <trkpt lat="43.94741" lon="6.23006">
        <ele>648</ele>
        <time>2020-09-26T15:15:44+02:00</time>
      </trkpt>
      <trkpt lat="43.94744" lon="6.22994">
        <ele>644</ele>
        <time>2020-09-26T15:15:44+02:00</time>
      </trkpt>
      <trkpt lat="43.94747" lon="6.22982">
        <ele>644</ele>
        <time>2020-09-26T15:15:44+02:00</time>
      </trkpt>
      <trkpt lat="43.94746" lon="6.22969">
        <ele>649</ele>
        <time>2020-09-26T15:15:44+02:00</time>
      </trkpt>
      <trkpt lat="43.94749" lon="6.22957">
        <ele>652</ele>
        <time>2020-09-26T15:17:52+02:00</time>
      </trkpt>
      <trkpt lat="43.94753" lon="6.22944">
        <ele>650</ele>
        <time>2020-09-26T15:17:52+02:00</time>
      </trkpt>
      <trkpt lat="43.94759" lon="6.22934">
        <ele>654</ele>
        <time>2020-09-26T15:17:52+02:00</time>
      </trkpt>
      <trkpt lat="43.94764" lon="6.22923">
        <ele>654</ele>
        <time>2020-09-26T15:17:52+02:00</time>
      </trkpt>
      <trkpt lat="43.9477" lon="6.22912">
        <ele>653</ele>
        <time>2020-09-26T15:17:52+02:00</time>
      </trkpt>
      <trkpt lat="43.94774" lon="6.22898">
        <ele>654</ele>
        <time>2020-09-26T15:17:52+02:00</time>
      </trkpt>
      <trkpt lat="43.94779" lon="6.22887">
        <ele>651</ele>
        <time>2020-09-26T15:17:52+02:00</time>
      </trkpt>
      <trkpt lat="43.94784" lon="6.22876">
        <ele>657</ele>
        <time>2020-09-26T15:17:52+02:00</time>
      </trkpt>
      <trkpt lat="43.94788" lon="6.22864">
        <ele>666</ele>
        <time>2020-09-26T15:20:00+02:00</time>
      </trkpt>
      <trkpt lat="43.94791" lon="6.22851">
        <ele>665</ele>
        <time>2020-09-26T15:20:00+02:00</time>
      </trkpt>
      <trkpt lat="43.94793" lon="6.22839">
        <ele>663</ele>
        <time>2020-09-26T15:20:00+02:00</time>
      </trkpt>
      <trkpt lat="43.94785" lon="6.2283">
        <ele>659</ele>
        <time>2020-09-26T15:20:00+02:00</time>
      </trkpt>
      <trkpt lat="43.94778" lon="6.22822">
        <ele>658</ele>
        <time>2020-09-26T15:20:00+02:00</time>
      </trkpt>
      <trkpt lat="43.9477" lon="6.22816">
        <ele>658</ele>
        <time>2020-09-26T15:20:00+02:00</time>
      </trkpt>
      <trkpt lat="43.94764" lon="6.22805">
        <ele>655</ele>
        <time>2020-09-26T15:20:00+02:00</time>
      </trkpt>
      <trkpt lat="43.94759" lon="6.22795">
        <ele>653</ele>
        <time>2020-09-26T15:20:00+02:00</time>
      </trkpt>
      <trkpt lat="43.9476" lon="6.22782">
        <ele>650</ele>
        <time>2020-09-26T15:20:00+02:00</time>
      </trkpt>
      <trkpt lat="43.9475" lon="6.2278">
        <ele>653</ele>
        <time>2020-09-26T15:22:08+02:00</time>
      </trkpt>
      <trkpt lat="43.94742" lon="6.22772">
        <ele>651</ele>
        <time>2020-09-26T15:22:08+02:00</time>
      </trkpt>
      <trkpt lat="43.94735" lon="6.22764">
        <ele>648</ele>
        <time>2020-09-26T15:22:08+02:00</time>
      </trkpt>
      <trkpt lat="43.94727" lon="6.22758">
        <ele>646</ele>
        <time>2020-09-26T15:22:08+02:00</time>
      </trkpt>
      <trkpt lat="43.94726" lon="6.22744">
        <ele>644</ele>
        <time>2020-09-26T15:22:08+02:00</time>
      </trkpt>
      <trkpt lat="43.94724" lon="6.22732">
        <ele>643</ele>
        <time>2020-09-26T15:22:08+02:00</time>
      </trkpt>
      <trkpt lat="43.94718" lon="6.22723">
        <ele>638</ele>
        <time>2020-09-26T15:22:08+02:00</time>
      </trkpt>
      <trkpt lat="43.94712" lon="6.22712">
        <ele>638</ele>
        <time>2020-09-26T15:22:08+02:00</time>
      </trkpt>
      <trkpt lat="43.94706" lon="6.22703">
        <ele>634</ele>
        <time>2020-09-26T15:22:08+02:00</time>
      </trkpt>
      <trkpt lat="43.94699" lon="6.22694">
        <ele>632</ele>
        <time>2020-09-26T15:22:08+02:00</time>
      </trkpt>
      <trkpt lat="43.94696" lon="6.22681">
        <ele>631</ele>
        <time>2020-09-26T15:24:16+02:00</time>
      </trkpt>
      <trkpt lat="43.94693" lon="6.2267">
        <ele>629</ele>
        <time>2020-09-26T15:24:16+02:00</time>
      </trkpt>
      <trkpt lat="43.94694" lon="6.22656">
        <ele>629</ele>
        <time>2020-09-26T15:24:16+02:00</time>
      </trkpt>
      <trkpt lat="43.94693" lon="6.22643">
        <ele>627</ele>
        <time>2020-09-26T15:24:16+02:00</time>
      </trkpt>
      <trkpt lat="43.94693" lon="6.2263">
        <ele>627</ele>
        <time>2020-09-26T15:24:16+02:00</time>
      </trkpt>
      <trkpt lat="43.94698" lon="6.22619">
        <ele>624</ele>
        <time>2020-09-26T15:24:16+02:00</time>
      </trkpt>
      <trkpt lat="43.94705" lon="6.2261">
        <ele>623</ele>
        <time>2020-09-26T15:24:16+02:00</time>
      </trkpt>
      <trkpt lat="43.94709" lon="6.22598">
        <ele>620</ele>
        <time>2020-09-26T15:24:16+02:00</time>
      </trkpt>
      <trkpt lat="43.94715" lon="6.22588">
        <ele>620</ele>
        <time>2020-09-26T15:24:16+02:00</time>
      </trkpt>
      <trkpt lat="43.9472" lon="6.22576">
        <ele>620</ele>
        <time>2020-09-26T15:24:16+02:00</time>
      </trkpt>
      <trkpt lat="43.94723" lon="6.22564">
        <ele>625</ele>
        <time>2020-09-26T15:24:16+02:00</time>
      </trkpt>
      <trkpt lat="43.94725" lon="6.22551">
        <ele>637</ele>
        <time>2020-09-26T15:26:24+02:00</time>
      </trkpt>
      <trkpt lat="43.94734" lon="6.22554">
        <ele>650</ele>
        <time>2020-09-26T15:26:24+02:00</time>
      </trkpt>
      <trkpt lat="43.94741" lon="6.22561">
        <ele>649</ele>
        <time>2020-09-26T15:26:24+02:00</time>
      </trkpt>
      <trkpt lat="43.9475" lon="6.22559">
        <ele>650</ele>
        <time>2020-09-26T15:26:24+02:00</time>
      </trkpt>
      <trkpt lat="43.94758" lon="6.22551">
        <ele>649</ele>
        <time>2020-09-26T15:26:24+02:00</time>
      </trkpt>
      <trkpt lat="43.94764" lon="6.22542">
        <ele>649</ele>
        <time>2020-09-26T15:28:32+02:00</time>
      </trkpt>
      <trkpt lat="43.94771" lon="6.22534">
        <ele>647</ele>
        <time>2020-09-26T15:28:32+02:00</time>
      </trkpt>
      <trkpt lat="43.94779" lon="6.22525">
        <ele>647</ele>
        <time>2020-09-26T15:28:32+02:00</time>
      </trkpt>
      <trkpt lat="43.94786" lon="6.22516">
        <ele>646</ele>
        <time>2020-09-26T15:28:32+02:00</time>
      </trkpt>
      <trkpt lat="43.94788" lon="6.22503">
        <ele>644</ele>
        <time>2020-09-26T15:28:32+02:00</time>
      </trkpt>
      <trkpt lat="43.94789" lon="6.2249">
        <ele>644</ele>
        <time>2020-09-26T15:28:32+02:00</time>
      </trkpt>
      <trkpt lat="43.94794" lon="6.22478">
        <ele>643</ele>
        <time>2020-09-26T15:28:32+02:00</time>
      </trkpt>
      <trkpt lat="43.94795" lon="6.22465">
        <ele>642</ele>
        <time>2020-09-26T15:28:32+02:00</time>
      </trkpt>
      <trkpt lat="43.94798" lon="6.22453">
        <ele>642</ele>
        <time>2020-09-26T15:28:32+02:00</time>
      </trkpt>
      <trkpt lat="43.94802" lon="6.22441">
        <ele>641</ele>
        <time>2020-09-26T15:28:32+02:00</time>
      </trkpt>
      <trkpt lat="43.94805" lon="6.22427">
        <ele>640</ele>
        <time>2020-09-26T15:28:32+02:00</time>
      </trkpt>
      <trkpt lat="43.94806" lon="6.22413">
        <ele>638</ele>
        <time>2020-09-26T15:28:32+02:00</time>
      </trkpt>
      <trkpt lat="43.94806" lon="6.224">
        <ele>636</ele>
        <time>2020-09-26T15:28:32+02:00</time>
      </trkpt>
      <trkpt lat="43.94805" lon="6.22387">
        <ele>637</ele>
        <time>2020-09-26T15:30:40+02:00</time>
      </trkpt>
      <trkpt lat="43.94804" lon="6.22374">
        <ele>639</ele>
        <time>2020-09-26T15:30:40+02:00</time>
      </trkpt>
      <trkpt lat="43.94802" lon="6.2236">
        <ele>638</ele>
        <time>2020-09-26T15:30:40+02:00</time>
      </trkpt>
      <trkpt lat="43.948" lon="6.22348">
        <ele>640</ele>
        <time>2020-09-26T15:30:40+02:00</time>
      </trkpt>
      <trkpt lat="43.948" lon="6.22334">
        <ele>641</ele>
        <time>2020-09-26T15:30:40+02:00</time>
      </trkpt>
      <trkpt lat="43.94803" lon="6.22322">
        <ele>640</ele>
        <time>2020-09-26T15:30:40+02:00</time>
      </trkpt>
      <trkpt lat="43.94805" lon="6.22308">
        <ele>639</ele>
        <time>2020-09-26T15:30:40+02:00</time>
      </trkpt>
      <trkpt lat="43.94806" lon="6.22296">
        <ele>642</ele>
        <time>2020-09-26T15:30:40+02:00</time>
      </trkpt>
      <trkpt lat="43.94805" lon="6.22282">
        <ele>646</ele>
        <time>2020-09-26T15:30:40+02:00</time>
      </trkpt>
      <trkpt lat="43.94806" lon="6.22268">
        <ele>648</ele>
        <time>2020-09-26T15:30:40+02:00</time>
      </trkpt>
      <trkpt lat="43.94811" lon="6.22256">
        <ele>650</ele>
        <time>2020-09-26T15:30:40+02:00</time>
      </trkpt>
      <trkpt lat="43.94816" lon="6.22246">
        <ele>649</ele>
        <time>2020-09-26T15:30:40+02:00</time>
      </trkpt>
      <trkpt lat="43.94823" lon="6.22237">
        <ele>649</ele>
        <time>2020-09-26T15:30:40+02:00</time>
      </trkpt>
      <trkpt lat="43.94829" lon="6.22227">
        <ele>649</ele>
        <time>2020-09-26T15:30:40+02:00</time>
      </trkpt>
      <trkpt lat="43.94826" lon="6.22214">
        <ele>649</ele>
        <time>2020-09-26T15:32:48+02:00</time>
      </trkpt>
      <trkpt lat="43.94823" lon="6.22201">
        <ele>648</ele>
        <time>2020-09-26T15:32:48+02:00</time>
      </trkpt>
      <trkpt lat="43.94817" lon="6.22191">
        <ele>649</ele>
        <time>2020-09-26T15:32:48+02:00</time>
      </trkpt>
      <trkpt lat="43.94808" lon="6.22185">
        <ele>648</ele>
        <time>2020-09-26T15:32:48+02:00</time>
      </trkpt>
      <trkpt lat="43.94799" lon="6.22184">
        <ele>647</ele>
        <time>2020-09-26T15:32:48+02:00</time>
      </trkpt>
      <trkpt lat="43.94789" lon="6.22182">
        <ele>650</ele>
        <time>2020-09-26T15:32:48+02:00</time>
      </trkpt>
      <trkpt lat="43.9478" lon="6.22179">
        <ele>650</ele>
        <time>2020-09-26T15:32:48+02:00</time>
      </trkpt>
      <trkpt lat="43.94773" lon="6.22186">
        <ele>652</ele>
        <time>2020-09-26T15:32:48+02:00</time>
      </trkpt>
      <trkpt lat="43.94766" lon="6.22195">
        <ele>651</ele>
        <time>2020-09-26T15:32:48+02:00</time>
      </trkpt>
      <trkpt lat="43.94757" lon="6.22194">
        <ele>651</ele>
        <time>2020-09-26T15:32:48+02:00</time>
      </trkpt>
      <trkpt lat="43.94749" lon="6.22186">
        <ele>648</ele>
        <time>2020-09-26T15:32:48+02:00</time>
      </trkpt>
      <trkpt lat="43.94741" lon="6.22182">
        <ele>650</ele>
        <time>2020-09-26T15:32:48+02:00</time>
      </trkpt>
      <trkpt lat="43.94735" lon="6.22172">
        <ele>652</ele>
        <time>2020-09-26T15:32:48+02:00</time>
      </trkpt>
      <trkpt lat="43.94733" lon="6.22159">
        <ele>650</ele>
        <time>2020-09-26T15:32:48+02:00</time>
      </trkpt>
      <trkpt lat="43.94731" lon="6.22147">
        <ele>649</ele>
        <time>2020-09-26T15:34:56+02:00</time>
      </trkpt>
      <trkpt lat="43.94729" lon="6.22134">
        <ele>646</ele>
        <time>2020-09-26T15:34:56+02:00</time>
      </trkpt>
      <trkpt lat="43.94731" lon="6.22121">
        <ele>645</ele>
        <time>2020-09-26T15:34:56+02:00</time>
      </trkpt>
      <trkpt lat="43.94735" lon="6.22108">
        <ele>644</ele>
        <time>2020-09-26T15:34:56+02:00</time>
      </trkpt>
      <trkpt lat="43.94737" lon="6.22096">
        <ele>645</ele>
        <time>2020-09-26T15:34:56+02:00</time>
      </trkpt>
    </trkseg>
  </trk>
</gpx>